GFSGBSN_700_rhum_000.txt.gz
RH
1 1 2 1 1 1 2 56 98 100 97 94 47 24 92 31 29 32 32 38 30 40 65 69 71 72 68 66 71 65 70 64 57 55 59 63 65 63 56 48 47 56 44 45 48 50 49
1 1 1 1 2 2 2 2 10 70 100 99 97 60 77 82 27 31 34 38 33 31 49 66 74 73 71 63 72 67 65 67 69 66 61 58 54 59 57 58 60 56 46 49 50 51 52
1 1 1 1 1 1 2 2 2 20 92 100 99 86 55 87 75 30 36 38 42 28 36 61 73 65 57 62 66 63 57 56 58 58 59 58 60 55 50 48 55 52 54 53 52 38 41
1 1 1 1 2 1 2 2 2 2 60 100 96 98 67 77 90 46 39 43 46 37 26 48 72 70 60 64 61 61 58 54 56 55 53 52 54 56 55 52 65 87 87 60 47 47 55
1 1 1 1 2 2 2 2 3 2 2 64 99 100 90 79 88 90 53 52 50 48 29 32 52 67 56 58 59 56 52 52 58 56 54 51 47 48 48 49 50 65 82 86 85 90 73
1 2 2 2 2 2 1 1 2 2 1 8 73 99 98 83 95 99 96 67 60 56 37 26 31 53 55 55 57 60 57 54 52 58 58 53 53 53 64 60 62 56 88 90 88 90 77
1 2 1 1 2 1 1 1 1 2 2 2 8 89 99 91 86 100 94 98 68 52 47 33 38 45 36 47 52 55 52 54 54 53 51 51 56 61 50 53 64 70 85 99 91 88 92
2 2 12 43 42 13 7 5 3 2 2 0 3 25 98 98 93 99 100 81 87 60 44 38 36 34 34 34 42 51 50 47 50 53 58 64 56 54 64 69 92 100 99 94 84 85 78
3 6 37 96 81 72 51 34 7 24 40 22 0 62 97 99 97 99 97 99 74 66 55 44 40 40 40 41 42 37 37 50 62 65 68 65 60 68 63 78 86 96 100 98 74 58 56
2 12 50 62 66 60 55 54 45 91 90 96 36 4 92 98 99 96 99 94 79 79 58 47 39 39 36 40 42 38 44 62 80 77 76 76 68 78 84 76 87 81 71 67 74 78 92
10 30 58 67 70 61 68 76 81 94 93 98 90 15 49 98 98 99 89 92 82 77 86 51 56 48 49 47 66 50 63 79 88 84 84 74 81 76 82 81 81 90 79 78 91 89 94
56 65 76 80 81 70 65 84 95 83 87 85 83 42 48 98 98 99 98 99 98 72 86 70 68 81 71 68 96 90 73 89 100 100 100 97 97 99 92 80 86 92 90 87 92 100 96
71 72 70 79 88 73 63 84 88 94 99 89 84 71 64 98 98 98 98 99 86 81 64 72 84 86 100 95 99 99 84 99 93 99 97 93 82 98 97 88 92 96 96 96 99 98 87
62 82 78 76 87 79 69 76 91 96 97 99 77 66 88 98 96 99 98 97 91 70 62 70 74 89 100 100 100 99 97 99 99 100 97 96 93 77 67 80 80 78 86 86 88 92 84
84 81 80 74 86 82 51 82 91 96 97 96 70 82 85 96 98 98 98 99 71 60 61 59 78 100 100 97 94 100 100 99 100 100 98 96 95 79 72 66 94 97 97 68 77 67 89
61 81 81 69 86 82 40 58 82 90 97 98 87 76 93 100 98 98 98 87 78 66 53 58 59 70 82 90 95 100 92 66 88 86 100 99 99 83 79 84 99 97 94 98 97 96 93
87 89 84 67 84 74 38 48 60 69 98 96 91 94 95 96 98 98 98 96 78 66 52 73 76 84 99 98 99 100 76 59 62 67 79 97 99 90 93 88 84 94 98 97 90 92 92
94 92 85 79 86 70 38 34 54 82 97 98 100 69 95 97 98 97 97 96 77 66 59 94 98 84 86 95 90 98 79 64 69 68 85 98 100 100 85 70 74 70 68 74 85 81 84
96 94 73 91 89 68 16 21 51 87 98 97 98 93 96 98 97 98 93 79 79 74 71 67 69 74 84 100 98 89 84 68 80 85 82 89 96 96 94 93 94 98 85 91 79 87 74
95 91 79 93 97 80 8 16 27 87 98 92 98 98 98 98 98 80 82 82 79 80 81 82 84 80 94 99 98 86 89 85 79 75 92 95 97 94 87 91 96 97 94 94 100 97 82
94 82 68 92 93 79 6 15 30 89 97 97 98 99 97 98 96 86 75 82 83 91 90 97 89 95 99 99 93 98 85 76 94 95 96 98 96 93 94 97 98 97 97 96 98 86 91
92 81 83 92 83 27 4 17 34 89 98 100 93 98 89 90 96 90 79 78 88 93 99 98 93 92 98 99 90 88 90 96 100 90 97 98 98 98 98 97 97 98 91 97 97 86 91
94 84 75 79 75 12 4 23 92 95 100 98 98 99 96 92 97 91 75 79 80 93 99 99 98 100 98 96 98 96 97 100 89 100 99 99 98 98 91 97 100 98 95 93 89 94 96
92 93 43 74 69 11 6 31 94 97 97 94 97 99 100 89 92 82 69 82 83 96 94 99 98 99 97 98 98 100 92 77 80 77 83 95 99 98 94 98 98 98 98 87 57 62 68
93 76 61 34 50 14 6 18 96 98 97 95 97 99 100 95 86 96 92 83 97 99 100 90 88 98 100 96 99 96 85 69 64 69 70 85 99 98 98 99 88 73 99 68 66 57 61
46 44 70 47 62 18 8 34 78 75 78 95 95 98 98 96 77 73 82 86 92 100 99 94 98 89 90 99 98 100 81 91 80 82 70 94 100 99 96 99 73 78 94 98 98 86 79
27 30 45 34 41 34 11 21 84 76 77 90 97 98 99 99 88 85 90 85 94 98 100 98 91 91 99 99 99 95 92 86 81 80 94 98 99 96 93 95 77 68 69 87 82 61 61
14 32 42 41 40 50 14 18 83 84 80 91 98 98 98 97 95 98 88 98 100 97 99 98 100 96 100 99 99 91 83 85 86 76 77 82 84 88 97 92 73 68 70 71 57 49 64
4 39 43 54 47 50 34 13 60 100 89 88 84 97 96 98 94 91 95 95 90 95 97 99 98 100 99 98 97 95 99 97 85 75 75 80 76 80 75 69 74 70 69 65 57 54 56

GFSGBSN_700_rhum_006.txt.gz
RH
2 2 1 2 1 1 1 1 1 1 1 2 4 71 100 100 99 51 80 73 34 34 39 40 55 72 72 78 94 80 88 78 68 77 76 73 77 76 75 64 60 59 49 40 38 31 32
3 2 2 1 1 1 1 1 1 1 1 1 2 24 46 96 98 81 74 88 46 39 41 37 58 72 76 74 77 86 81 84 72 88 84 86 95 92 86 81 70 57 48 45 43 40 41
4 3 2 1 1 1 1 1 1 1 1 1 2 2 5 52 97 99 76 92 74 42 45 37 47 68 74 76 82 78 70 74 89 86 84 71 68 66 64 68 63 56 49 46 37 37 42
6 4 3 2 1 1 1 1 1 1 1 1 1 1 3 3 63 99 82 93 91 53 52 46 35 45 62 78 74 71 69 66 65 66 73 81 66 64 62 61 58 58 57 74 62 47 49
7 5 4 2 2 2 5 4 8 7 5 2 1 2 1 3 24 99 89 97 99 84 60 48 44 33 46 65 71 68 66 69 69 66 67 65 64 64 59 61 83 80 68 84 74 44 61
8 6 4 2 2 12 16 48 62 64 56 29 7 6 2 2 9 98 98 98 99 86 75 56 43 44 37 47 73 73 69 68 70 68 68 64 64 65 52 74 58 58 82 74 63 71 42
9 6 4 3 2 4 21 95 97 84 65 44 44 33 8 2 9 98 99 99 99 100 80 52 38 39 34 38 64 66 65 70 71 70 69 65 71 54 48 50 65 51 60 73 74 60 48
9 6 4 3 3 3 43 97 80 68 60 66 78 77 91 59 4 26 98 99 92 92 88 61 60 46 42 40 57 51 56 69 73 74 76 70 63 58 57 56 55 57 76 74 76 80 72
8 6 4 3 3 33 91 84 76 75 68 74 96 86 97 100 65 13 95 98 100 98 97 85 61 56 48 42 47 46 54 63 67 69 64 66 62 48 56 59 62 73 90 84 82 82 86
8 5 4 3 10 90 72 87 76 83 68 86 89 89 96 91 62 21 26 98 98 98 99 92 79 57 48 43 42 43 57 68 67 63 57 59 73 63 76 81 71 88 89 92 96 94 76
7 5 3 5 84 90 87 80 78 85 90 89 90 99 87 96 98 71 54 95 98 99 96 81 68 60 51 48 46 46 58 70 66 60 56 68 63 64 65 54 74 94 86 95 96 92 91
7 4 4 65 94 89 82 76 77 86 79 75 93 95 90 69 97 81 95 96 98 98 94 77 78 66 49 57 58 55 62 81 81 86 79 89 80 77 86 80 85 89 99 100 100 98 90
6 3 42 92 92 87 66 79 81 78 54 57 80 94 96 77 63 74 100 97 98 97 79 88 98 98 78 96 97 79 85 99 94 99 99 100 90 77 86 97 94 99 100 75 84 92 63
5 8 98 91 83 71 75 83 78 66 52 85 97 95 64 38 76 87 98 98 97 95 85 84 99 99 100 92 99 96 97 98 98 99 98 99 79 76 48 53 92 92 94 67 58 43 40
4 9 91 87 68 70 75 75 82 46 34 63 98 82 61 73 72 91 97 98 96 92 71 80 99 100 100 97 98 96 96 98 100 99 94 98 86 55 59 74 86 100 99 83 88 87 93
3 10 99 81 71 72 75 76 68 37 34 72 96 90 67 86 85 98 97 97 97 76 57 62 98 98 99 98 97 99 97 82 98 88 97 100 95 70 84 80 77 93 99 93 98 82 69
3 9 81 74 82 85 78 58 47 31 34 75 96 98 92 95 97 85 98 97 89 83 68 70 68 88 96 98 96 100 98 71 64 54 97 98 94 97 91 78 79 92 100 99 95 91 67
3 7 67 86 92 89 60 16 29 26 24 42 94 97 85 98 96 97 98 96 92 85 76 64 65 62 69 76 94 99 94 70 62 67 83 92 100 97 95 85 86 88 94 97 97 91 97
4 3 27 59 73 93 24 18 22 24 25 28 96 98 97 100 98 97 97 97 94 77 74 69 66 61 62 64 76 85 84 76 71 71 80 92 98 94 75 85 81 100 73 97 98 98 93
4 3 8 44 23 63 22 22 25 27 25 61 94 97 97 99 74 88 88 96 86 78 76 71 67 68 67 72 75 91 84 81 76 80 92 97 100 86 70 65 84 98 96 98 97 97 75
4 3 3 19 29 38 19 26 69 77 88 95 99 99 94 100 93 94 93 88 80 76 75 73 72 66 65 75 92 90 88 91 90 84 83 100 100 93 74 90 99 99 100 99 98 86 94
5 4 2 13 20 24 24 43 72 84 93 97 100 100 87 88 83 85 91 92 90 79 76 70 71 83 90 85 96 97 94 95 91 92 98 99 94 90 96 100 100 99 96 100 100 100 100
6 5 2 7 14 19 26 43 61 73 92 94 95 87 91 97 96 95 81 85 80 74 86 82 85 90 87 93 96 99 100 99 99 98 94 94 92 96 93 98 98 98 99 100 92 99 100
6 6 3 2 11 15 18 38 53 65 72 94 99 91 78 86 89 84 85 90 78 81 92 91 89 97 97 98 99 100 97 100 100 100 98 82 95 99 97 92 94 98 98 99 95 87 100
8 6 5 2 2 8 11 22 46 66 77 88 97 90 84 98 92 94 96 96 91 87 82 87 93 96 98 97 97 98 99 97 81 76 79 89 99 98 98 98 84 91 97 96 95 85 84
9 6 6 4 1 2 7 11 37 65 75 81 92 90 84 82 79 87 83 91 87 86 87 90 90 95 100 99 98 99 89 77 77 82 92 99 100 99 99 97 79 82 83 93 98 88 77
10 6 6 6 3 1 2 5 20 48 72 80 85 98 98 94 83 79 80 87 87 92 97 97 97 99 99 99 98 100 98 82 82 89 86 98 100 98 99 98 81 75 73 73 73 78 71
11 7 7 6 4 1 1 2 6 30 64 74 76 81 94 97 78 78 86 90 84 85 90 95 96 99 99 98 99 98 100 89 82 77 76 84 96 96 97 94 81 69 65 69 62 62 71
11 8 7 6 4 2 2 2 5 7 28 75 91 89 96 100 97 75 76 80 85 85 100 100 92 93 98 98 98 100 96 93 90 86 79 87 77 87 79 74 61 62 65 56 60 61 72

GFSGBSN_700_rhum_009.txt.gz
RH
6 6 6 5 4 3 2 2 2 2 1 1 1 1 1 4 57 99 93 81 92 85 38 38 39 48 70 98 98 85 89 80 59 80 77 63 78 95 96 87 89 92 84 69 76 61 76
7 8 7 6 6 4 3 3 2 2 2 1 1 1 1 2 66 95 100 75 97 95 51 40 39 49 71 83 90 100 95 87 76 77 80 84 96 100 100 91 87 89 87 85 85 67 89
8 8 8 8 7 5 3 3 3 2 2 2 1 1 1 1 2 64 89 93 86 97 73 43 40 54 73 90 87 92 97 90 81 80 96 90 89 99 99 100 98 73 67 74 48 54 84
10 9 9 9 7 5 5 5 12 25 31 16 6 2 0 1 1 2 30 100 88 98 88 48 42 52 74 73 81 87 91 93 84 84 99 81 84 100 98 98 68 57 84 77 66 66 72
12 11 10 9 8 6 31 64 99 94 62 48 47 27 6 1 1 2 6 80 95 99 97 53 50 41 60 61 78 82 82 84 78 73 80 84 97 99 86 80 82 84 66 64 64 67 71
14 13 11 9 6 4 16 98 100 92 80 82 64 49 32 23 7 1 3 31 98 99 99 94 53 48 45 43 65 77 77 74 73 64 60 74 92 93 85 91 62 58 69 61 52 49 66
16 13 11 7 4 4 60 97 95 86 84 76 73 75 69 66 59 3 4 44 99 98 98 81 46 51 43 37 51 80 79 77 75 72 62 68 78 71 83 84 79 68 63 54 50 54 62
16 12 9 5 3 21 94 97 95 87 88 81 77 84 86 86 97 91 15 96 98 97 99 96 56 45 47 42 60 75 82 81 82 72 98 84 63 83 88 84 84 79 71 62 58 60 63
14 12 8 5 12 77 95 94 94 94 86 85 89 95 87 95 96 99 52 82 98 98 99 99 81 58 47 45 55 58 66 82 89 100 99 98 85 60 79 77 68 73 73 68 65 66 70
14 10 7 19 77 93 93 96 85 83 90 91 94 88 85 85 93 81 66 90 98 98 98 98 94 72 59 54 49 50 64 82 92 100 99 97 90 74 61 56 74 75 69 71 78 79 64
12 10 13 86 97 93 91 87 76 90 94 88 78 83 83 85 76 95 84 86 98 98 97 98 100 100 68 59 69 55 62 68 96 90 90 91 62 83 72 67 89 83 90 87 85 83 84
11 8 11 81 91 82 80 85 89 83 78 79 59 70 93 67 63 92 98 97 97 98 97 98 99 95 69 94 68 70 76 70 92 100 99 86 97 73 87 82 83 96 95 96 92 95 84
10 6 19 87 82 76 80 90 82 68 74 39 50 87 97 92 42 86 95 93 97 96 97 100 98 99 88 100 100 79 97 98 81 98 100 100 90 93 75 91 100 99 98 70 80 92 64
11 5 22 99 88 92 94 87 69 65 42 42 74 92 83 86 60 79 98 96 96 91 99 98 100 98 99 99 100 100 96 99 100 95 96 97 87 99 85 91 88 100 94 61 53 40 34
11 4 23 98 94 95 92 77 45 39 33 37 52 84 72 55 47 73 96 94 88 98 95 99 100 95 100 99 95 100 100 100 97 100 95 92 90 82 79 64 87 94 92 72 81 70 67
10 4 14 50 85 98 92 22 28 30 32 32 74 78 82 53 64 90 98 97 97 100 92 83 97 97 98 98 98 98 100 95 99 98 98 93 86 84 95 72 88 94 90 91 96 79 56
10 4 4 31 67 70 96 14 25 30 28 25 70 81 97 78 80 93 96 98 98 100 83 98 94 91 94 97 94 96 94 92 94 97 100 99 87 98 85 72 76 97 100 98 87 88 74
10 4 3 15 53 68 49 17 18 21 25 35 76 96 84 79 98 98 95 98 97 99 83 80 96 83 80 85 84 80 81 88 82 85 99 97 96 95 81 83 88 87 96 96 97 72 93
11 4 2 6 37 32 22 26 46 70 98 86 85 91 79 91 93 82 100 98 99 95 96 97 78 83 84 86 86 86 90 93 68 65 97 98 93 90 83 83 84 90 86 86 97 98 96
11 5 2 4 17 24 28 53 67 76 81 96 77 96 97 91 87 69 98 97 91 95 83 69 60 57 64 90 80 91 95 80 75 71 97 99 96 85 66 58 75 96 96 98 98 98 81
12 6 3 2 12 25 34 53 60 76 88 87 86 92 94 93 94 95 97 95 96 94 80 70 69 68 84 88 94 94 98 81 81 80 84 98 94 92 93 96 96 90 96 96 99 96 99
13 6 5 2 5 21 33 49 62 79 93 83 78 75 77 74 85 99 86 100 98 79 81 68 75 74 82 87 95 99 100 100 99 97 95 97 98 99 98 77 87 100 94 99 100 98 99
16 7 7 3 2 8 25 40 55 66 82 73 79 92 97 76 89 99 98 98 96 85 76 68 82 98 94 98 91 88 90 98 99 99 100 99 98 99 89 85 92 93 100 99 97 93 98
20 11 8 7 2 2 10 31 47 54 64 71 66 72 84 92 99 99 89 92 86 84 90 85 85 90 89 96 96 99 100 98 93 96 98 96 98 100 88 86 92 85 86 91 91 93 100
22 14 10 11 5 1 2 13 35 57 64 67 72 72 63 80 98 86 86 92 81 78 80 93 90 94 92 91 88 86 98 93 81 97 100 98 100 97 98 91 74 94 90 85 98 93 98
22 17 12 13 11 3 0 2 16 40 57 63 66 63 68 69 84 87 86 89 100 96 83 80 85 89 95 94 94 95 99 82 94 98 100 100 100 99 100 97 82 76 76 76 89 87 95
22 19 14 13 13 8 1 0 1 15 42 57 66 73 78 71 72 78 85 98 84 90 93 87 95 94 94 97 92 98 95 92 85 85 98 100 100 100 100 98 85 76 72 77 78 76 92
21 21 17 14 13 11 3 1 0 2 21 53 63 73 76 67 68 69 73 85 86 94 98 91 87 95 96 97 97 98 97 99 90 85 96 89 94 100 99 97 84 67 66 78 70 69 78
22 22 19 16 13 11 4 2 2 2 3 28 62 80 82 86 89 78 73 76 87 99 96 92 92 97 92 96 96 97 98 99 95 82 80 92 83 79 84 76 74 77 69 71 64 68 69

GFSGBSN_700_rhum_015.txt.gz
RH
10 10 12 16 16 14 13 13 14 19 25 55 62 40 24 6 2 2 1 1 7 91 94 92 94 80 38 36 44 67 70 58 64 48 41 23 23 50 62 37 52 70 55 64 43 51 58
9 10 14 18 15 14 14 12 14 46 99 98 92 97 62 31 12 5 2 1 10 73 100 84 99 90 44 38 55 76 82 79 78 77 79 71 28 56 60 64 80 76 78 81 69 66 53
8 11 18 17 16 15 13 10 12 81 93 88 98 96 96 85 52 12 5 3 2 33 98 90 99 97 49 39 62 94 84 76 77 83 91 92 84 91 91 79 92 88 87 82 56 31 38
9 15 19 16 16 14 9 17 56 96 96 96 94 92 86 74 60 63 37 11 2 16 85 98 99 98 61 46 45 68 96 98 84 76 91 98 98 95 85 93 80 84 82 75 36 44 39
11 18 18 17 14 11 31 94 93 89 90 94 91 89 76 65 59 57 51 39 10 4 69 98 99 99 68 45 44 60 88 99 93 91 90 99 96 98 98 88 90 84 78 62 63 57 64
14 19 18 16 10 8 57 86 87 88 93 86 78 72 72 77 79 77 64 61 17 3 91 98 99 99 75 44 41 59 78 89 92 99 95 100 100 100 97 97 84 83 74 70 68 61 71
18 19 18 13 7 16 63 80 79 73 74 73 71 70 74 76 81 87 84 92 35 17 62 98 98 87 68 50 46 66 79 94 98 98 96 100 99 91 78 79 80 73 83 74 64 60 57
20 18 16 9 6 30 71 81 72 68 64 68 67 71 74 70 72 84 82 92 70 82 90 97 97 98 60 44 47 71 87 95 96 98 100 92 86 79 97 96 81 75 80 69 56 59 54
20 19 14 6 4 40 66 73 64 63 57 54 58 49 57 66 71 70 86 85 91 98 93 98 98 99 72 48 47 55 79 92 89 99 91 83 78 69 88 89 88 84 78 68 62 45 46
20 18 11 4 3 23 37 41 44 43 36 34 35 43 59 76 84 82 85 76 89 99 97 98 98 98 86 60 66 76 90 97 100 96 95 95 94 86 78 84 87 78 73 70 72 67 64
20 17 9 2 6 17 19 18 22 30 34 38 49 65 98 84 96 78 89 99 97 97 97 97 99 99 92 67 62 99 100 100 99 96 94 91 93 90 94 77 88 77 74 67 69 70 70
20 16 8 2 8 16 18 18 21 27 32 44 58 86 99 97 91 71 68 97 89 95 96 98 100 86 99 93 87 92 99 100 99 97 98 98 89 90 93 83 80 85 75 68 66 74 88
21 15 8 1 8 19 14 14 17 24 29 37 63 85 99 94 91 57 58 89 87 96 98 99 99 85 83 98 96 99 98 98 94 98 100 97 89 81 74 73 80 82 76 83 89 91 88
21 14 8 2 8 16 20 23 36 58 79 95 86 83 64 84 80 69 70 93 96 97 98 98 100 95 95 95 95 100 99 100 85 82 84 84 76 77 64 71 66 76 70 73 86 96 80
21 14 9 1 11 15 24 49 69 85 96 98 81 68 100 76 50 73 87 94 96 98 98 99 99 98 97 90 84 95 96 98 87 78 73 82 87 86 78 78 78 80 89 86 84 77 87
22 15 10 1 23 38 49 63 91 97 96 87 83 58 99 80 72 96 96 96 94 98 98 99 94 96 99 92 85 89 92 90 86 74 86 87 89 92 85 78 86 83 80 88 91 100 94
22 16 11 2 14 39 50 65 96 100 90 78 71 64 80 78 79 69 95 88 99 96 97 91 79 91 89 96 82 85 77 82 90 81 94 86 87 93 96 79 63 84 95 90 85 92 98
23 18 12 6 4 34 50 69 96 79 84 75 56 75 79 93 91 99 99 94 96 98 86 94 87 82 74 85 78 80 82 88 86 88 89 92 84 90 76 72 79 81 69 82 76 74 80
23 21 14 11 1 29 43 66 74 41 79 65 50 72 86 89 95 93 95 98 98 98 96 95 90 83 76 78 78 81 96 91 93 97 92 94 95 91 89 86 89 92 82 86 86 86 89
23 23 17 14 2 19 37 54 54 38 64 42 51 73 70 62 82 94 99 94 95 81 82 81 82 74 83 93 87 97 93 86 96 98 95 92 94 78 80 88 88 93 90 88 92 98 88
23 24 21 16 12 4 36 44 38 39 45 42 38 54 55 80 79 88 92 96 83 80 72 68 85 85 84 86 84 90 84 84 85 91 97 96 92 90 82 67 71 74 72 72 88 82 99
22 24 24 19 17 5 17 38 35 30 53 61 60 60 68 75 89 86 82 86 81 74 65 69 78 86 83 85 74 87 84 78 76 81 96 100 97 89 69 76 83 78 74 78 84 92 99
20 24 25 23 20 17 3 18 43 36 44 42 59 49 46 62 82 86 92 94 79 77 74 77 82 83 85 83 88 85 93 86 84 85 85 88 88 98 80 76 81 81 75 78 83 83 96
17 23 25 26 23 20 16 2 14 48 48 55 58 53 56 61 69 92 86 86 77 76 71 69 68 78 81 83 87 89 90 96 96 97 97 89 84 90 81 79 89 75 72 75 79 81 84
18 22 24 27 26 23 21 15 2 6 47 58 54 67 74 91 95 96 83 83 80 76 72 83 80 88 89 89 90 90 95 94 97 96 95 89 97 87 94 91 70 77 72 77 80 75 84
26 20 23 25 28 27 23 21 14 4 2 20 47 60 62 93 99 95 94 98 82 77 76 81 82 85 87 89 82 84 93 96 99 100 100 100 98 98 100 96 89 80 68 78 79 74 80
35 20 23 23 25 29 28 24 20 16 6 2 2 28 69 67 99 99 100 95 93 93 94 99 85 82 87 85 83 82 94 99 96 97 98 98 99 98 92 97 71 62 74 83 78 70 76
45 21 23 23 22 27 30 29 26 21 16 5 6 4 17 65 76 99 100 100 94 90 93 94 92 91 94 94 88 99 94 98 96 96 92 88 87 94 100 98 84 80 86 89 79 73 71
72 27 24 25 23 25 30 30 28 24 16 8 6 14 9 12 65 78 100 98 99 97 98 94 91 87 84 88 93 100 98 97 97 96 95 96 81 83 80 67 78 84 89 85 82 67 71

GFSGBSN_700_rhum_021.txt.gz
RH
18 16 14 19 18 16 11 4 10 13 13 42 60 72 77 88 92 96 94 92 82 15 2 3 99 84 99 91 75 49 50 30 33 38 26 24 22 20 22 20 23 27 30 20 19 16 20
18 16 16 20 18 13 6 5 12 11 14 40 76 76 73 66 74 74 72 67 57 48 10 2 79 93 99 96 82 40 71 62 43 69 40 28 25 22 26 25 29 40 30 26 24 20 21
18 15 18 20 17 11 5 10 12 12 25 40 87 58 50 55 57 70 64 60 56 50 31 3 9 95 100 100 82 44 70 75 69 57 43 32 30 38 42 35 44 46 50 34 28 26 28
17 14 20 20 15 9 6 18 13 15 43 44 71 52 44 48 50 59 60 59 51 44 37 5 23 100 94 91 82 43 87 92 87 81 55 39 41 61 55 64 68 64 60 70 36 29 27
16 15 20 20 13 7 20 20 16 17 49 98 90 62 55 50 62 74 67 65 60 47 36 5 24 99 98 95 70 58 96 96 92 99 92 55 62 64 66 84 98 97 90 74 36 42 49
14 15 21 19 13 4 15 14 16 26 50 86 70 52 59 57 70 77 70 62 72 56 29 6 85 99 98 85 85 65 75 88 82 92 99 95 95 91 88 93 90 89 80 66 67 56 67
15 17 21 18 12 3 15 14 18 38 92 87 69 46 52 51 69 71 72 82 72 64 24 18 64 99 78 99 85 80 99 80 94 98 99 96 98 93 75 71 67 67 63 70 59 51 61
16 18 22 17 12 3 13 26 45 93 100 80 41 40 40 52 66 89 74 84 82 93 24 30 97 92 98 100 62 78 96 98 99 100 98 98 100 98 95 98 95 84 84 76 69 70 77
16 19 22 17 11 5 23 18 25 48 66 52 32 47 50 70 91 91 74 83 78 69 54 29 99 95 96 98 59 99 97 99 93 98 100 98 99 98 99 100 100 99 91 82 82 70 71
17 19 22 16 8 14 35 43 56 62 95 96 89 77 82 90 90 97 77 84 85 64 59 63 98 100 90 81 65 75 99 98 99 100 99 99 96 96 100 96 97 90 82 83 80 79 73
19 20 22 16 5 31 43 58 89 98 95 97 97 97 76 84 97 98 88 80 90 74 85 96 97 98 89 75 75 86 100 96 100 98 96 98 95 81 82 93 99 90 84 82 76 64 65
32 20 23 16 10 34 54 53 71 97 89 89 88 86 84 96 95 89 81 78 90 95 96 98 98 100 96 85 93 98 99 98 97 99 100 97 100 90 90 98 98 91 87 78 64 64 78
66 19 23 16 20 30 23 36 44 81 73 76 68 80 67 88 82 68 70 80 84 94 97 98 99 97 91 99 95 99 95 98 99 98 99 98 100 97 94 89 85 86 84 59 68 88 76
79 20 23 16 23 27 22 30 34 58 57 59 53 62 52 55 72 79 72 74 85 96 97 99 99 96 98 100 97 95 89 88 91 89 95 94 92 85 83 84 77 82 76 50 57 82 83
79 24 23 17 18 30 17 31 24 18 22 37 44 55 81 71 62 64 72 85 95 96 98 98 100 90 97 99 99 95 96 80 84 89 79 89 83 88 87 81 74 75 82 68 69 90 88
80 25 23 19 8 31 12 19 40 22 23 26 42 47 45 42 60 78 93 98 99 99 97 90 86 96 99 96 96 99 96 85 78 87 77 82 79 90 88 84 89 83 71 78 70 65 82
60 31 23 21 12 31 23 11 35 44 43 38 50 56 65 75 78 82 99 99 100 99 92 82 83 90 92 89 86 89 82 77 89 87 82 73 76 96 97 90 84 88 89 74 68 71 89
53 52 26 24 18 21 36 9 28 37 51 49 62 73 82 85 83 96 98 100 91 96 83 74 73 67 70 73 79 84 78 81 77 83 87 86 82 84 83 90 84 86 72 68 60 80 92
55 74 54 24 21 10 32 29 17 36 44 50 54 77 78 76 84 85 88 90 89 83 78 78 74 73 66 67 66 74 71 67 85 73 80 85 78 83 87 85 86 88 75 78 85 77 84
58 80 66 22 24 20 15 30 25 28 36 40 41 60 68 70 85 81 76 74 83 84 79 83 79 77 73 75 74 78 83 88 83 86 84 80 76 77 76 77 79 86 75 79 88 86 79
44 77 83 20 25 23 17 30 32 36 31 34 46 65 68 69 70 71 76 86 84 85 75 79 86 76 80 81 74 81 86 88 95 96 90 88 85 86 82 81 84 87 82 80 81 74 92
34 66 90 25 23 25 23 10 32 32 33 34 47 60 65 73 73 78 78 73 80 84 79 70 80 92 83 79 80 78 78 85 93 93 90 88 92 93 74 69 69 69 64 68 74 74 77
39 61 88 54 20 24 26 22 7 21 32 37 35 47 50 61 70 74 76 76 76 78 89 86 86 86 90 82 71 86 89 87 85 77 89 96 92 89 80 88 81 72 60 61 60 67 78
45 63 89 94 23 22 25 27 22 9 9 34 37 43 46 47 56 66 72 73 71 77 78 90 89 91 87 84 82 86 84 87 83 85 90 85 86 89 87 74 92 73 74 74 74 76 83
53 85 93 95 63 22 22 26 28 23 18 6 17 40 41 45 47 48 52 64 77 77 76 72 78 81 84 91 92 93 90 94 86 88 92 92 96 90 90 99 68 56 71 74 75 67 76
52 76 94 96 96 21 24 24 27 29 27 24 20 10 10 34 39 39 46 49 60 73 81 78 82 82 94 94 96 90 77 79 82 90 91 96 98 98 99 97 92 89 78 68 75 78 85
53 89 93 96 94 34 22 24 26 28 30 30 29 26 22 18 5 24 48 63 65 63 76 80 83 87 91 95 96 90 91 90 90 85 96 96 97 98 99 95 70 60 71 70 82 82 88
82 93 94 96 95 64 24 24 25 27 29 31 31 31 28 25 20 10 36 74 75 82 84 82 89 90 90 96 93 86 87 95 99 86 82 88 93 94 99 97 84 79 82 86 85 85 91
94 95 95 96 96 95 37 26 26 27 28 30 32 33 32 28 24 20 9 41 77 98 96 100 95 87 92 92 86 88 88 91 97 89 92 97 84 83 75 68 70 83 80 82 86 92 82

GFSGBSN_700_rhum_024.txt.gz
RH
27 22 17 18 21 20 15 12 8 18 16 13 26 56 86 96 74 69 80 81 82 80 70 20 10 57 96 100 97 72 49 31 26 22 23 25 24 22 21 26 38 44 46 37 29 28 27
29 23 19 20 21 19 14 11 30 25 21 60 54 66 70 42 52 69 65 68 77 84 63 50 11 85 100 99 99 82 72 38 26 25 26 25 26 27 30 23 25 42 40 30 23 23 23
31 25 18 20 21 17 13 13 42 62 56 58 100 90 62 44 62 54 63 54 59 69 58 49 9 63 100 89 85 93 71 61 36 30 35 29 30 34 34 34 34 43 38 27 22 21 22
38 26 19 21 21 15 10 42 68 77 86 99 100 98 70 61 53 68 67 66 64 56 46 43 12 26 99 99 95 95 67 85 80 65 81 59 40 44 53 49 51 46 49 40 29 22 22
53 29 19 22 20 15 6 34 87 99 65 93 98 100 91 53 51 54 70 68 67 62 50 40 13 65 98 82 86 72 92 88 95 99 87 66 50 66 71 68 86 84 70 50 38 33 32
56 28 20 22 18 8 13 35 62 66 94 97 97 97 64 37 52 53 66 67 66 70 51 42 16 93 91 93 87 65 99 94 90 97 82 77 86 97 84 99 87 87 88 62 49 41 42
70 31 20 23 16 10 31 45 45 92 100 94 97 76 65 46 44 57 75 72 71 65 55 32 20 98 98 96 100 62 99 98 99 98 97 82 94 89 67 86 72 82 75 70 53 52 52
69 37 22 22 10 28 37 55 72 98 99 96 93 78 91 60 68 82 92 70 72 94 49 80 23 98 99 98 79 88 96 99 92 99 99 99 98 88 86 83 72 81 80 72 70 65 70
55 62 30 20 10 31 22 29 52 96 92 92 97 95 96 94 90 93 86 77 82 74 56 93 87 97 98 99 83 90 96 94 98 100 99 94 99 100 100 91 93 85 78 74 75 72 74
53 73 26 19 16 26 20 16 59 92 74 74 82 89 82 97 95 95 82 79 83 64 64 90 98 98 100 99 91 99 98 99 99 99 98 99 100 99 100 100 99 91 87 88 82 81 76
53 76 25 18 21 22 17 16 44 77 51 44 68 68 83 98 88 96 71 73 46 42 64 82 94 86 93 83 77 99 99 96 98 98 97 98 99 100 96 98 100 96 88 83 82 77 66
50 78 26 18 19 21 17 14 15 25 32 46 55 60 72 75 87 66 66 55 85 85 100 75 98 100 96 90 66 98 99 98 93 82 99 96 99 98 95 99 97 93 90 87 81 72 72
52 77 23 20 14 30 14 17 26 21 31 45 52 58 49 58 64 55 68 84 83 92 94 98 99 95 80 94 71 86 98 99 94 97 98 100 99 91 91 100 98 96 93 71 60 77 73
60 66 28 21 10 34 10 18 29 33 39 44 64 63 56 45 56 61 76 83 90 98 98 100 99 98 80 99 99 99 96 88 95 88 92 91 99 99 97 88 80 90 87 59 50 74 73
57 60 44 22 14 31 16 22 30 39 42 47 51 54 54 54 64 81 85 81 97 97 98 97 94 90 89 95 98 98 91 88 93 86 81 85 90 94 90 93 87 88 89 75 63 81 85
67 56 64 27 16 16 31 14 35 42 59 60 54 54 59 61 73 91 94 95 100 98 89 84 88 98 98 95 90 93 90 80 85 88 83 79 85 92 93 94 86 78 70 72 59 63 69
67 57 68 60 23 10 29 10 35 47 57 66 75 83 84 77 76 86 98 100 100 100 95 78 74 81 88 84 87 85 89 82 80 81 81 72 72 98 98 91 82 82 78 66 64 64 82
65 50 62 78 23 18 19 30 18 44 50 65 77 78 80 92 84 100 100 100 100 90 83 72 70 69 68 77 85 74 89 80 75 84 82 71 75 86 88 89 82 83 76 68 57 72 84
67 58 52 76 37 24 12 28 24 29 39 43 64 78 81 75 100 100 90 90 90 78 74 69 68 70 71 74 76 80 77 76 76 84 84 76 75 83 97 87 90 90 82 81 71 67 74
74 76 48 69 82 22 22 13 32 33 31 32 38 58 69 74 94 96 93 90 84 85 76 72 71 71 72 72 66 72 68 68 70 77 86 82 75 71 74 79 82 89 80 78 83 85 72
83 80 64 60 83 28 25 18 16 34 36 35 55 55 56 63 73 78 88 94 87 78 82 89 87 79 75 76 73 73 79 86 84 82 87 89 83 79 78 82 88 86 84 82 83 68 67
85 77 72 61 83 60 23 25 15 11 35 38 43 62 65 66 64 69 77 84 85 79 78 75 80 86 80 74 72 75 74 83 83 94 94 96 87 89 79 77 77 74 69 80 82 78 67
84 73 65 71 79 90 22 25 24 16 11 37 41 44 46 51 64 68 70 71 74 79 77 79 88 91 88 85 75 76 84 88 88 84 87 94 94 86 82 76 83 68 58 59 50 49 55
88 63 63 69 77 97 37 23 27 26 19 9 34 44 43 45 50 60 66 70 71 71 79 88 90 90 89 88 81 90 90 84 92 86 94 89 93 84 82 72 85 64 75 75 65 71 78
89 66 73 59 79 96 80 21 24 28 29 24 15 11 30 43 51 54 54 58 66 68 75 78 86 88 88 92 90 93 91 94 88 83 84 91 96 91 87 99 63 51 72 77 74 76 84
89 71 75 71 88 96 97 25 22 24 27 30 30 27 20 12 11 36 49 62 63 69 71 72 79 82 86 96 96 90 76 82 82 84 88 95 97 98 99 86 94 81 79 72 75 88 87
71 78 78 85 96 98 96 52 25 23 22 25 28 31 31 29 24 17 8 45 63 69 73 71 75 84 85 99 98 91 84 87 86 85 92 94 99 99 97 93 70 63 84 73 80 85 88
85 90 90 91 97 97 96 96 71 25 25 26 25 27 28 32 33 31 26 18 36 90 92 81 85 86 94 100 100 91 85 86 90 86 78 77 81 100 97 99 80 67 70 81 92 89 89
88 89 90 96 96 96 97 96 96 58 29 29 29 29 31 33 35 34 33 28 15 74 100 100 98 80 82 91 89 89 84 86 89 99 85 90 82 80 73 68 67 89 86 87 91 90 90

GFSGBSN_700_rhum_027.txt.gz
RH
46 56 39 22 21 22 19 15 17 47 59 95 86 92 96 94 99 69 65 62 61 69 81 93 71 12 19 100 97 92 93 81 39 27 22 26 24 21 28 44 52 58 51 47 41 40 38
46 54 33 22 22 22 16 11 30 72 98 97 86 90 98 97 95 75 56 40 47 53 68 88 72 18 16 98 88 96 85 81 42 27 24 35 28 23 24 34 48 59 53 42 36 35 35
49 69 44 22 25 20 12 28 48 68 97 95 86 98 94 90 96 74 60 58 60 54 58 70 68 36 14 80 93 97 100 65 42 28 24 29 40 32 27 32 36 58 47 44 31 32 34
48 64 36 23 26 12 24 29 41 68 88 93 96 98 98 95 90 67 53 58 62 58 62 56 55 37 22 64 97 97 99 87 50 44 35 31 39 52 54 47 46 54 55 38 27 24 26
49 60 52 30 22 17 24 14 29 56 80 90 93 95 97 96 50 55 56 62 66 64 69 57 59 36 48 99 80 98 83 98 63 53 63 64 59 71 74 57 70 64 58 41 37 32 32
52 61 58 27 15 26 11 13 19 69 89 90 91 98 99 90 53 64 72 72 68 65 63 57 55 29 32 90 97 78 73 100 83 77 97 98 76 74 94 78 83 94 76 44 33 29 27
48 58 68 25 12 19 14 11 28 91 90 83 80 87 76 89 72 77 66 82 68 64 70 50 30 68 74 71 87 95 77 99 99 97 99 98 95 71 84 100 77 56 42 42 39 47 48
46 58 69 24 13 13 14 15 25 82 69 71 79 82 96 96 90 87 90 85 68 81 62 38 24 99 80 96 95 79 91 100 99 99 99 98 96 75 84 99 81 80 78 64 55 54 50
49 60 66 24 14 12 17 18 21 27 37 59 76 82 78 97 93 90 77 78 78 59 94 77 92 100 100 100 99 95 98 98 98 99 96 90 98 98 88 93 84 82 67 67 70 70 68
62 63 68 23 13 14 20 32 23 31 29 44 70 74 88 82 93 90 76 80 56 78 85 100 87 99 98 99 100 87 94 99 100 98 99 98 94 99 97 96 95 78 80 82 81 84 71
66 66 67 22 15 21 17 27 35 33 29 37 49 73 73 76 63 68 67 45 52 45 80 87 94 99 100 92 92 98 97 99 97 99 96 98 99 100 99 94 94 93 89 90 82 78 73
56 65 63 27 21 27 14 26 41 32 35 38 51 41 40 35 39 31 47 87 87 71 96 93 99 98 97 94 100 94 95 94 99 98 99 98 99 99 98 99 99 92 94 87 83 78 68
58 68 59 50 23 22 15 26 40 35 36 37 36 29 31 41 63 82 89 89 82 93 93 98 98 100 95 96 97 98 99 99 98 98 99 98 96 98 99 99 98 96 93 78 62 71 68
60 72 59 68 32 15 32 27 41 56 40 49 43 48 47 59 85 87 78 73 82 97 99 99 100 97 98 96 95 97 99 91 82 82 96 97 100 97 99 98 90 92 92 68 55 58 56
62 74 59 66 65 22 27 17 39 54 64 71 58 59 61 65 73 69 67 74 96 98 97 89 94 98 96 100 90 77 95 88 87 84 80 88 98 99 100 95 87 94 89 72 59 75 74
76 80 70 59 76 25 15 22 38 47 60 70 74 78 71 77 85 67 63 100 99 100 100 93 80 86 95 87 88 97 91 87 86 79 72 79 91 99 96 96 90 75 79 74 62 68 55
90 82 75 64 67 44 21 26 21 37 48 60 74 73 78 87 75 90 96 100 100 97 89 76 72 82 79 90 89 90 83 84 84 83 80 73 74 100 97 95 87 81 72 59 55 58 65
88 83 76 75 64 73 24 14 29 26 34 40 62 71 79 85 96 87 93 90 98 89 79 67 66 71 70 82 75 84 80 73 81 80 78 74 73 98 100 92 87 81 80 70 55 68 75
90 81 75 80 67 67 33 23 17 28 24 30 34 64 70 78 97 100 99 99 93 84 76 67 67 71 66 69 74 80 82 86 78 80 81 70 70 90 100 91 88 86 78 76 65 57 61
90 82 78 78 72 66 73 24 16 24 28 26 42 53 70 68 72 81 86 86 82 81 77 74 73 70 66 71 66 70 76 75 76 78 90 79 67 61 59 67 72 80 72 77 77 76 68
92 85 82 80 73 73 74 30 24 12 30 30 51 60 58 74 75 74 78 86 84 75 80 84 86 76 72 68 68 67 71 72 72 75 89 86 77 74 71 75 76 78 78 73 72 67 64
99 91 88 85 75 76 79 61 25 23 10 30 35 54 64 68 70 73 74 77 78 78 70 81 88 80 83 75 69 75 71 75 72 79 90 93 87 82 75 72 74 73 72 74 76 73 70
100 95 93 88 75 75 76 89 23 26 19 16 36 35 51 48 64 71 72 69 71 75 78 76 90 91 89 83 80 81 86 84 84 80 86 89 87 83 79 76 76 72 60 59 54 53 54
96 94 94 91 78 74 82 98 40 25 28 21 11 31 41 40 48 62 68 73 72 69 77 82 85 85 87 89 83 89 94 95 92 86 90 86 91 85 85 78 86 67 77 79 73 55 59
97 96 92 75 79 76 86 97 60 25 24 28 27 19 14 21 42 54 60 61 67 70 72 79 84 88 84 90 87 90 91 92 94 91 94 90 90 90 91 96 62 48 70 78 76 76 82
89 93 83 81 84 92 93 96 42 47 22 24 28 30 28 25 17 15 40 58 63 66 73 76 81 84 83 93 93 88 78 83 90 84 84 89 97 94 95 87 86 80 79 78 79 96 90
84 93 91 90 92 99 98 96 95 35 47 24 24 26 29 30 30 27 21 14 42 69 68 68 79 87 87 94 97 92 82 78 84 90 99 100 100 100 94 81 76 72 81 80 81 93 92
83 96 92 94 99 99 97 96 96 95 88 58 27 26 26 27 29 31 32 32 29 22 96 85 87 90 97 100 97 96 89 84 87 86 94 84 83 99 99 97 86 57 63 79 93 95 88
96 95 98 98 97 97 96 96 96 95 95 95 63 30 31 32 33 34 36 35 34 24 23 96 96 82 89 96 95 96 85 86 87 96 87 88 75 81 77 69 68 82 92 88 89 90 87

GFSGBSN_700_rhum_030.txt.gz
RH
53 49 57 58 39 29 15 21 14 29 80 96 91 93 93 91 96 93 90 79 84 68 60 56 68 70 67 52 45 97 90 88 85 38 26 28 26 71 68 44 43 55 55 46 42 35 34
54 53 64 55 31 15 21 20 28 43 68 85 85 89 90 95 94 90 82 88 51 52 48 44 55 69 74 39 29 93 99 100 85 39 33 28 28 63 95 57 49 62 69 54 48 45 42
59 53 66 48 24 22 13 13 40 56 86 76 82 84 85 93 97 93 80 63 71 58 50 48 53 66 76 24 47 98 100 98 92 44 37 55 38 60 58 51 54 70 64 57 47 47 50
57 53 67 46 19 25 13 14 27 65 94 92 92 84 90 93 93 93 70 62 66 64 54 55 62 66 67 19 47 94 100 100 87 46 42 68 65 67 53 46 46 66 70 69 39 45 46
55 54 70 33 16 26 17 19 25 84 86 71 77 86 88 88 96 45 59 65 65 62 64 72 75 61 50 17 71 91 99 99 76 51 56 67 80 76 57 55 82 79 52 58 64 30 38
52 62 68 36 17 26 19 34 28 79 84 75 78 81 86 70 86 72 70 70 67 69 62 69 56 60 27 33 93 98 86 98 76 64 76 99 84 86 94 82 57 69 56 69 56 42 27
54 68 67 44 18 27 18 38 29 31 37 72 74 70 85 81 70 72 70 78 70 66 72 55 47 95 43 90 67 77 83 98 83 72 83 80 90 88 84 82 72 76 70 59 33 42 32
58 58 68 51 20 26 16 36 26 22 40 49 72 72 72 77 88 91 93 78 64 70 61 44 74 98 49 92 90 72 97 98 95 84 87 94 100 98 93 93 80 80 69 68 59 53 50
73 60 69 57 21 23 20 37 14 21 26 51 56 69 71 75 80 88 65 70 66 57 82 84 98 91 76 80 79 86 98 98 95 99 96 99 98 95 94 82 91 89 77 63 67 56 61
80 64 69 62 23 18 19 42 22 20 24 31 39 38 51 63 71 63 70 59 82 70 96 97 97 99 98 98 98 98 98 98 99 99 100 99 96 83 91 92 85 81 62 66 75 77 56
92 66 69 62 41 16 19 46 36 19 25 28 28 47 60 60 41 36 50 47 62 65 87 95 98 98 99 94 88 98 97 99 98 96 98 98 96 98 100 92 91 83 73 82 84 82 73
90 74 71 59 68 21 24 36 56 43 42 30 39 52 64 73 76 65 70 78 79 78 91 98 98 99 96 99 97 98 98 98 96 98 98 96 99 99 100 100 99 94 90 89 83 77 73
86 81 77 66 65 36 16 25 46 59 58 54 53 56 65 62 69 58 56 65 74 92 95 98 100 98 92 97 85 87 98 98 94 96 98 99 99 99 99 100 100 99 90 82 79 87 58
93 85 79 74 63 69 18 23 42 54 68 58 58 56 55 57 70 52 52 59 89 99 99 94 96 94 97 99 98 98 98 96 92 91 95 97 98 98 99 98 98 98 90 68 56 47 41
93 88 81 75 74 69 34 17 26 42 57 65 61 60 60 64 58 55 49 62 95 99 100 100 97 87 96 94 91 89 88 86 98 95 88 91 100 99 97 98 98 95 95 76 50 56 59
89 87 85 76 78 66 69 17 22 29 42 48 67 66 63 68 55 61 51 80 91 85 87 92 83 90 100 91 79 84 75 78 79 82 73 80 98 96 96 97 92 88 82 75 66 68 47
90 84 86 80 72 71 69 30 14 21 30 34 49 57 61 74 73 68 77 98 97 100 89 79 79 84 84 95 88 89 86 77 81 76 72 73 78 100 99 98 92 80 86 66 66 55 45
90 84 84 82 77 70 68 66 19 20 21 28 33 59 56 59 72 88 100 100 98 85 76 70 71 77 74 80 88 88 79 72 77 78 77 69 70 100 100 91 90 85 75 61 55 73 69
92 87 88 84 80 72 70 71 27 14 25 25 33 50 58 60 64 78 91 96 94 82 73 68 68 69 67 76 76 85 79 78 76 74 72 69 69 97 99 90 88 89 81 76 67 52 64
78 75 88 85 82 80 73 70 49 22 22 28 44 51 63 60 57 66 76 79 74 70 70 69 71 69 68 74 65 76 76 79 76 74 82 74 59 58 59 63 68 77 66 71 74 66 64
72 83 87 89 81 80 76 70 70 24 12 30 49 58 56 70 69 71 72 71 71 68 72 72 78 72 70 68 65 67 72 72 73 75 78 85 73 66 63 64 72 75 70 67 69 64 62
62 81 82 86 82 80 76 70 80 24 22 20 38 54 61 64 64 68 69 74 78 72 68 75 85 78 76 73 69 71 64 64 69 72 85 88 79 73 70 70 72 68 68 71 72 70 65
62 69 74 83 81 78 75 70 85 26 26 17 33 44 55 47 61 67 68 68 69 73 75 78 84 85 84 75 76 75 80 81 82 77 77 94 88 78 83 77 76 67 50 56 54 54 52
58 60 65 76 77 76 73 79 89 61 23 27 19 21 44 47 44 50 64 68 70 70 79 84 89 86 84 77 74 79 84 90 89 88 89 88 86 81 90 79 78 53 71 75 67 60 48
61 61 65 76 76 80 79 86 92 84 35 22 28 24 18 21 39 49 52 58 66 71 74 86 88 90 91 91 86 87 89 92 88 90 92 85 89 85 96 87 65 56 72 75 69 59 56
64 62 74 72 72 77 85 88 92 48 73 35 22 25 29 26 21 15 38 54 56 62 67 74 87 93 94 96 93 95 81 85 94 86 91 92 91 92 100 86 59 71 70 80 81 95 81
71 71 79 77 79 86 90 92 92 92 57 90 49 24 24 28 29 29 27 19 28 51 62 64 76 87 94 97 98 95 87 75 92 90 97 95 92 98 90 84 74 77 84 77 87 87 87
72 78 84 84 84 91 92 92 89 90 94 96 95 92 38 26 27 28 29 30 30 28 21 52 76 87 99 100 94 86 95 84 83 81 99 97 99 96 100 95 85 61 80 84 83 87 89
85 81 85 82 83 87 94 95 93 93 93 87 93 96 81 54 32 34 31 33 33 33 31 33 51 75 84 100 94 93 93 87 90 95 88 97 77 87 74 79 62 67 66 71 88 92 88

GFSGBSN_700_rhum_033.txt.gz
RH
59 60 60 64 46 14 15 17 24 25 40 83 83 72 80 81 85 89 96 83 75 86 86 91 89 85 70 64 45 49 30 69 98 98 47 36 31 43 96 95 85 65 66 66 66 66 49
65 61 66 64 37 16 15 31 28 28 81 92 94 98 92 88 83 87 95 83 68 70 58 48 45 45 61 58 72 43 49 62 99 98 74 79 31 50 98 95 86 91 84 80 69 56 45
71 64 67 64 32 17 16 37 25 46 95 62 76 77 87 92 92 90 95 90 68 62 59 54 74 52 44 45 71 45 67 75 95 98 90 99 88 90 97 95 98 93 83 88 76 50 75
76 71 64 65 28 20 22 26 13 55 67 52 67 77 84 96 95 88 84 92 64 60 57 61 60 56 40 41 64 49 79 78 71 93 89 100 98 97 98 98 98 92 88 77 49 45 61
80 75 65 63 24 22 33 16 24 48 39 53 73 74 79 96 78 77 51 65 70 63 64 65 58 55 62 59 51 43 94 98 97 98 68 98 93 92 96 96 88 81 62 59 58 33 57
82 73 68 61 23 22 38 14 29 30 29 52 77 69 81 80 70 66 62 70 65 67 67 70 75 67 49 53 23 48 97 95 93 92 99 99 94 92 93 75 58 56 53 44 44 55 50
81 73 69 60 28 23 40 16 28 40 29 38 57 57 65 80 74 86 76 78 76 63 69 84 88 69 70 94 85 94 100 99 97 61 90 94 96 93 73 61 49 41 52 40 42 49 48
81 76 69 60 51 21 38 34 12 28 44 40 34 53 64 69 74 66 70 68 60 65 78 48 67 97 98 75 98 97 98 99 72 76 100 87 95 87 72 65 68 64 56 55 55 58 47
84 77 70 64 65 18 28 51 33 24 30 47 61 46 35 41 47 57 59 54 59 56 92 80 98 67 92 83 97 98 99 98 91 99 98 100 94 94 88 73 74 63 58 55 66 73 63
83 82 75 73 62 36 24 46 55 45 43 41 49 58 72 50 35 31 39 37 68 90 98 94 89 79 86 94 98 95 92 96 99 99 97 99 94 98 94 86 66 62 65 77 75 72 42
76 84 79 75 64 67 17 30 50 60 60 58 56 52 54 57 60 54 58 66 80 88 93 98 97 70 91 100 97 100 98 98 98 95 99 99 98 96 86 76 70 73 77 84 76 78 73
80 83 83 75 72 67 34 23 45 57 63 60 54 54 46 49 57 64 69 71 77 99 94 98 98 99 96 99 98 98 94 98 98 99 99 93 98 99 96 88 76 77 75 82 81 77 73
80 81 85 78 71 70 70 17 26 46 57 62 57 45 44 48 50 51 59 71 95 94 97 99 98 98 94 91 85 92 98 98 98 98 98 99 99 99 98 99 92 86 78 77 80 87 63
79 84 81 73 74 68 65 38 17 29 47 55 66 56 50 48 43 48 60 71 88 100 96 99 97 100 97 96 90 96 99 98 98 96 98 98 98 99 98 92 85 90 77 68 63 58 49
81 85 81 72 70 67 64 65 18 20 33 39 61 62 52 43 50 53 52 59 90 95 91 95 94 98 99 97 94 96 97 97 96 97 98 96 97 98 99 98 98 98 93 79 56 41 46
74 82 82 74 61 65 60 61 48 14 21 32 38 59 52 43 51 55 48 64 93 100 95 96 87 93 88 96 87 82 84 84 90 79 78 86 98 100 98 99 98 96 94 87 68 75 40
73 78 75 71 72 65 66 62 61 24 19 22 30 57 58 50 51 53 59 95 91 85 82 89 94 89 98 96 84 77 84 74 79 76 70 80 87 100 98 96 96 96 97 82 73 62 51
57 60 65 66 67 68 65 63 62 52 14 22 28 57 62 55 63 60 92 97 97 81 71 74 79 95 87 90 86 82 78 90 75 75 82 68 98 99 98 92 86 89 78 71 57 67 55
55 57 56 53 52 66 64 64 63 61 17 25 30 52 58 63 92 70 71 85 84 77 72 69 69 68 68 89 85 92 75 67 78 78 83 68 81 98 98 93 84 85 77 72 70 58 76
51 50 51 48 47 56 64 66 67 65 26 19 32 53 62 60 55 86 63 67 69 63 60 62 63 67 78 85 74 86 75 68 66 63 66 70 70 77 64 72 80 82 80 78 74 76 56
52 51 52 49 48 54 64 65 64 70 31 15 35 61 60 70 72 72 66 61 65 71 68 70 78 70 80 79 78 84 79 71 71 67 68 79 70 56 57 60 66 69 86 84 77 65 58
55 54 52 48 49 57 63 64 65 75 34 18 28 56 67 66 68 72 76 74 71 69 67 83 90 85 73 77 72 78 78 83 71 65 64 72 77 69 62 58 59 56 63 88 77 63 70
60 57 55 51 51 54 64 68 67 78 38 25 16 48 67 69 73 77 88 69 71 72 71 74 86 96 93 86 70 67 80 84 83 73 78 95 88 74 86 72 72 70 37 44 52 50 59
61 60 60 57 57 55 54 68 72 80 51 24 25 21 49 67 62 74 69 70 69 72 75 80 85 92 88 83 76 75 79 79 82 85 92 99 92 84 96 85 82 61 49 57 52 60 48
63 63 67 61 62 63 63 72 78 82 80 35 24 26 22 26 46 53 55 68 75 72 76 80 86 87 87 90 100 98 97 95 92 86 87 93 93 94 92 74 63 53 57 66 70 69 40
70 69 70 66 68 73 75 75 76 81 76 82 70 23 26 26 26 23 28 54 68 75 73 76 81 87 91 90 97 84 75 71 90 97 88 86 93 90 87 74 58 71 58 74 76 86 46
61 66 68 68 74 74 82 82 77 79 87 84 92 95 38 26 26 28 27 22 32 66 74 69 70 88 92 95 99 85 73 76 76 88 99 100 95 92 85 76 68 66 68 81 85 88 76
61 64 64 68 76 74 79 82 79 77 74 77 82 91 90 79 31 27 28 28 26 22 23 69 70 72 83 95 99 94 81 82 77 84 91 92 93 90 85 82 78 58 80 79 81 81 84
58 60 64 73 75 75 76 85 88 86 84 76 72 76 82 84 87 57 30 30 31 31 32 31 39 73 99 81 89 95 83 88 86 76 88 86 82 77 79 77 70 58 79 79 80 78 80

GFSGBSN_700_rhum_036.txt.gz
RH
75 74 63 64 52 19 16 20 21 23 78 76 47 74 82 89 96 84 81 86 93 71 84 89 97 97 96 82 76 80 36 74 66 100 97 65 27 33 36 43 68 62 72 54 57 61 61
75 73 63 64 46 17 28 20 24 14 45 43 64 70 77 83 96 86 82 80 91 75 78 82 89 95 86 67 89 80 77 54 93 93 94 83 35 47 64 98 77 75 69 71 61 61 63
73 69 65 62 49 17 29 26 18 21 23 37 70 62 72 82 95 85 77 91 95 75 58 50 47 36 38 46 94 60 71 72 88 89 98 75 81 94 86 95 98 92 80 77 69 68 64
79 68 65 62 56 18 36 23 29 36 38 28 46 52 68 83 69 76 52 87 94 67 58 53 51 52 33 33 38 49 46 98 53 89 100 80 98 94 90 88 95 92 84 86 72 77 58
82 77 65 66 60 19 41 14 20 32 47 30 32 46 68 67 57 56 54 68 72 68 61 55 59 53 38 32 24 28 50 98 99 63 99 90 99 89 92 100 99 88 74 83 76 60 56
85 83 68 70 63 32 38 37 16 20 34 51 30 43 63 67 66 70 65 63 64 63 63 65 61 83 53 63 52 44 46 98 99 95 99 98 98 94 89 94 85 79 74 69 68 64 50
73 83 72 74 70 58 21 52 38 34 32 43 55 28 48 63 62 53 73 74 84 64 67 93 93 67 83 96 46 47 55 92 98 99 100 99 94 74 63 56 65 59 68 51 52 55 53
74 81 75 74 70 65 19 40 56 54 39 47 45 52 25 31 47 40 43 40 56 52 68 48 48 61 74 88 73 60 83 99 88 99 90 83 90 76 78 75 62 54 53 46 44 47 54
81 85 77 76 73 67 44 23 46 58 59 46 49 36 49 34 33 44 44 35 49 80 96 86 91 70 84 91 78 78 91 98 98 98 92 92 93 78 76 70 62 60 55 48 53 63 58
79 81 75 76 75 69 66 18 41 56 64 48 56 46 45 60 58 54 84 89 96 96 98 95 94 90 94 98 97 98 98 99 99 98 94 99 84 94 97 70 61 63 59 52 56 68 54
77 86 75 70 71 71 68 57 22 46 56 60 52 46 43 45 61 77 86 90 93 96 93 94 86 82 96 98 89 98 99 84 95 97 99 99 90 84 99 84 72 59 59 63 66 67 73
74 82 78 68 63 63 64 64 24 32 47 55 58 51 49 46 47 56 65 82 94 93 97 98 94 90 100 93 93 99 84 95 82 99 88 98 94 94 100 86 71 85 74 73 83 77 81
82 77 77 69 55 49 64 62 63 17 35 40 57 58 52 39 35 57 68 76 92 92 96 99 98 99 95 90 84 76 83 92 98 98 98 96 92 95 99 92 95 99 76 84 90 90 87
85 76 72 66 51 48 48 61 62 48 19 32 41 58 60 43 35 45 70 68 86 96 100 91 98 95 78 82 79 90 98 98 99 97 97 98 98 96 96 91 94 88 66 71 73 89 73
94 71 62 55 52 48 47 51 58 61 21 22 28 55 60 42 38 43 55 71 84 86 89 100 98 94 88 86 81 99 98 98 99 98 97 95 98 99 98 98 99 91 85 84 58 40 56
62 59 55 47 44 43 42 42 55 60 52 17 22 44 55 48 40 40 38 63 81 84 82 96 89 84 90 89 92 95 90 98 97 98 93 95 96 98 98 98 91 84 89 85 60 78 62
57 57 49 46 42 40 37 40 52 59 58 17 22 40 57 69 54 49 44 73 77 78 71 93 86 79 80 86 81 74 82 87 87 83 92 97 83 99 99 98 92 92 93 84 78 67 85
61 53 45 43 43 37 36 42 52 56 59 17 24 45 59 68 86 70 59 66 67 68 68 74 81 87 84 85 76 77 82 86 79 79 80 79 97 98 98 96 99 97 92 86 85 71 53
61 53 47 44 42 39 37 43 53 59 61 21 29 46 62 73 99 82 65 67 63 60 61 64 73 66 78 82 77 84 86 69 77 81 78 68 84 95 97 97 98 93 89 91 86 65 62
58 53 53 49 46 43 39 43 54 61 64 30 25 54 63 67 99 98 94 92 82 65 64 69 66 63 70 77 76 84 75 68 73 61 63 65 70 82 76 76 76 82 75 74 72 62 57
57 55 53 50 48 46 44 44 53 59 67 35 19 54 60 92 73 86 96 94 99 99 76 76 84 84 80 78 77 83 83 69 70 60 63 70 67 60 63 53 58 62 78 81 76 62 58
54 55 55 55 50 51 49 47 51 63 70 37 16 36 64 65 77 75 82 100 97 86 73 96 91 92 82 76 71 75 66 62 61 61 66 70 76 69 60 54 53 51 58 83 85 72 68
56 59 60 57 57 52 52 52 55 66 77 41 24 22 56 77 80 81 98 97 93 76 79 81 90 91 91 88 76 78 86 81 75 57 62 71 71 70 88 82 70 61 30 39 53 44 44
48 54 50 56 58 55 56 60 64 68 78 62 26 22 37 92 90 100 94 81 73 77 87 82 85 85 85 84 79 78 75 85 83 77 78 88 89 83 84 79 95 47 53 43 33 37 43
37 48 51 55 60 56 58 63 66 65 72 73 63 50 24 24 59 72 57 67 80 80 81 81 78 81 85 83 86 90 90 93 94 90 84 95 87 85 86 84 54 46 46 51 61 55 50
40 51 55 58 56 58 61 64 64 66 66 78 80 91 60 27 27 27 28 46 61 85 100 83 82 84 87 85 93 87 91 74 84 90 88 92 93 90 86 79 75 66 62 59 73 70 62
36 44 51 54 55 59 63 64 66 67 68 70 76 80 90 92 33 25 26 25 25 50 74 99 74 82 88 87 88 83 80 73 74 78 94 94 92 93 82 79 71 64 60 74 86 79 59
37 44 50 54 58 60 64 68 68 69 68 70 72 75 78 85 95 65 30 29 28 22 42 72 66 70 76 93 92 76 76 84 76 73 85 80 83 82 83 87 83 64 64 86 82 83 81
22 41 50 55 58 64 65 72 75 73 73 72 73 76 72 71 76 89 81 59 28 27 26 27 39 97 100 93 96 95 90 78 80 81 80 87 75 79 70 70 72 71 70 80 84 81 81

GFSGBSN_700_rhum_042.txt.gz
RH
74 81 73 64 71 62 47 35 28 24 30 21 28 19 21 36 44 50 68 74 68 85 91 78 71 82 95 95 96 98 75 82 44 84 91 80 37 38 40 53 82 89 77 98 100 96 98
83 84 79 74 70 66 60 21 46 33 34 26 33 35 32 33 42 44 47 74 81 91 69 72 85 88 85 85 93 91 70 76 30 87 97 88 42 43 49 44 57 79 99 92 90 99 98
74 82 81 67 69 65 63 26 39 48 31 36 34 46 41 24 44 46 53 74 89 85 78 67 86 96 95 94 97 81 58 41 71 99 84 92 48 44 49 52 64 76 91 92 85 85 91
70 81 76 64 72 64 62 56 23 45 38 40 40 43 47 32 28 47 50 66 76 68 52 46 49 50 59 88 96 89 64 67 58 98 94 97 52 55 61 69 66 76 68 82 72 70 81
75 75 65 62 68 68 61 62 21 40 46 45 59 48 52 56 27 37 49 52 56 54 50 52 46 46 46 37 84 92 81 75 81 74 99 91 64 70 74 77 79 91 65 69 68 70 78
73 68 63 58 63 62 56 56 54 30 52 52 61 73 59 53 45 31 39 59 49 45 48 45 48 47 47 40 37 73 96 80 72 79 99 96 76 79 73 84 85 51 61 52 65 75 77
56 62 68 50 54 57 51 54 60 23 42 54 62 68 71 61 71 62 41 41 45 45 46 53 50 66 52 44 33 31 83 92 92 98 100 99 89 64 66 89 82 69 80 75 78 74 72
33 49 58 52 49 45 40 46 55 56 28 48 53 67 63 66 69 77 76 74 67 54 44 42 48 48 57 40 43 33 71 99 98 98 97 99 94 76 80 94 76 73 80 75 66 67 74
23 38 45 47 45 39 37 40 51 53 32 36 44 62 60 55 66 76 84 81 79 78 62 48 44 47 59 61 46 58 70 98 100 88 97 99 100 82 96 93 70 81 68 73 66 65 75
23 26 34 35 42 38 38 38 42 48 57 23 36 49 60 49 58 76 81 77 76 91 96 94 85 63 64 81 59 66 80 98 98 95 95 96 93 84 83 78 80 84 72 67 64 63 77
27 30 29 29 35 35 36 34 34 42 49 38 29 35 54 46 47 74 80 73 79 93 96 96 95 75 69 75 72 66 68 93 98 94 91 96 91 94 81 61 81 73 67 62 62 64 69
31 30 30 31 34 34 36 34 32 37 44 56 20 30 51 44 46 69 72 70 71 86 94 98 96 87 81 100 68 56 71 69 94 95 81 99 99 100 94 68 74 65 65 70 74 69 69
34 38 40 35 35 33 36 36 33 32 41 45 28 26 48 44 46 62 71 73 83 88 94 97 99 98 91 97 89 68 48 76 95 97 98 98 99 93 82 82 75 73 69 80 85 84 80
35 41 47 38 38 36 42 40 33 28 39 46 44 20 45 40 43 49 66 65 79 94 100 97 98 98 98 99 91 74 86 98 88 93 99 97 98 95 86 89 89 75 66 65 83 98 80
31 36 38 34 29 34 44 40 34 32 41 49 45 21 49 47 41 44 55 66 77 86 86 90 95 98 98 98 96 99 99 95 92 90 82 93 99 98 96 97 86 81 71 68 72 70 75
20 26 26 22 26 40 43 36 34 35 45 52 37 24 63 60 46 43 65 60 74 78 85 83 86 86 94 96 98 96 99 99 94 84 84 73 81 98 100 99 95 85 79 81 79 85 74
11 10 12 19 26 38 35 32 35 35 45 54 31 33 63 68 57 48 58 68 66 70 75 83 78 77 82 80 85 93 98 100 96 93 87 81 75 90 97 100 93 93 94 86 79 82 87
5 5 7 18 25 32 31 35 33 34 44 53 30 40 66 87 65 63 62 65 68 68 75 82 76 75 75 79 78 80 87 90 96 92 92 88 82 100 98 99 100 91 88 83 83 92 73
3 4 9 21 25 22 27 33 31 31 44 56 26 42 67 85 88 72 65 68 71 65 66 71 77 78 81 81 76 79 85 86 99 99 96 87 94 98 99 99 98 99 96 86 87 88 73
3 5 7 13 17 17 28 32 32 32 41 54 40 35 71 98 90 86 82 82 84 76 67 64 64 71 83 83 79 77 76 88 90 85 87 82 82 82 73 70 77 94 92 98 93 91 76
4 6 10 15 23 30 33 34 32 32 42 56 39 35 76 92 93 90 90 88 90 92 80 72 72 79 80 80 76 76 76 76 85 84 81 78 72 78 75 70 75 76 74 87 94 84 85
5 9 15 21 27 34 34 32 31 34 36 54 44 32 78 80 99 92 93 84 82 96 84 86 85 86 81 81 77 78 75 72 73 70 64 68 63 64 77 74 66 77 81 87 89 85 78
5 8 15 24 31 37 35 34 35 36 38 43 53 27 72 98 100 97 92 96 88 97 92 90 92 90 89 85 82 81 81 77 72 70 68 68 65 67 70 67 70 66 46 47 58 74 68
3 7 15 25 34 37 38 36 36 36 40 45 52 53 35 87 100 98 94 91 96 92 92 88 87 86 82 86 84 82 82 81 82 80 73 68 67 69 76 90 89 43 46 46 45 34 36
3 7 17 25 31 37 42 41 40 40 42 45 48 51 68 40 87 95 91 98 97 91 92 93 93 91 91 88 82 79 80 82 81 84 87 88 91 82 83 93 56 39 49 52 50 43 47
3 4 10 21 30 35 39 40 40 44 46 48 51 52 57 75 56 34 76 83 86 99 97 97 90 92 91 92 90 85 76 71 77 87 98 98 98 94 95 88 88 74 69 62 63 55 45
2 3 4 14 26 31 30 33 37 45 50 52 54 56 59 67 78 74 36 31 45 85 100 100 94 89 86 86 91 86 76 84 85 82 82 91 91 92 85 91 71 54 62 66 78 65 80
2 2 4 6 13 20 26 27 35 48 52 54 58 62 62 60 64 69 82 48 32 34 75 94 81 80 97 96 97 84 80 74 79 77 76 74 76 88 91 96 82 56 61 66 73 80 80
2 2 2 3 4 6 18 28 36 49 50 55 65 67 69 65 61 59 67 79 79 41 30 66 84 65 77 99 93 95 86 85 82 82 77 81 72 65 65 61 63 70 66 68 63 79 86

GFSGBSN_700_rhum_045.txt.gz
RH
50 50 44 46 52 56 55 57 21 43 40 33 32 40 45 24 28 30 31 54 60 70 86 75 73 81 88 96 93 96 80 96 67 39 79 99 50 40 99 78 72 96 86 98 88 82 97
47 54 48 44 49 58 56 54 38 31 48 43 47 45 49 29 30 34 33 65 68 85 63 64 74 87 83 97 96 98 79 80 77 29 90 86 64 52 97 58 83 88 100 99 100 90 99
58 56 52 41 51 56 54 51 60 22 46 56 50 63 54 49 28 37 35 62 80 68 60 64 75 73 90 94 95 92 88 83 86 31 68 89 79 57 70 59 70 89 96 98 98 96 97
62 51 51 47 46 52 48 48 52 33 35 57 52 69 65 63 34 34 40 50 66 56 39 44 57 91 91 95 92 92 68 86 85 80 90 99 78 63 54 54 68 83 100 98 95 89 97
42 34 41 49 48 48 48 44 48 58 24 43 54 67 69 60 55 35 43 38 53 54 44 43 47 47 53 84 96 100 100 96 68 54 92 99 68 74 67 71 61 90 72 98 82 80 71
30 28 38 45 45 41 36 42 43 48 53 27 48 60 69 68 72 56 36 38 41 45 48 44 44 48 48 54 72 99 94 91 81 79 98 97 60 78 76 75 83 63 56 78 78 70 81
28 22 26 41 40 40 36 37 39 43 47 35 34 49 67 70 67 79 57 41 39 38 46 46 43 52 41 43 42 87 90 97 99 98 99 98 61 76 65 78 65 60 77 80 82 81 80
25 19 20 31 41 41 37 36 37 40 44 60 23 39 65 65 64 77 82 58 58 49 46 44 46 57 44 40 42 59 90 97 99 98 98 99 71 67 73 86 75 68 77 73 79 72 77
20 17 21 27 33 40 40 37 36 36 36 44 41 32 54 61 59 75 86 74 76 70 59 52 43 46 56 44 41 33 79 87 87 98 91 98 89 67 79 93 73 81 56 66 62 76 84
16 17 19 25 27 36 39 40 37 33 34 41 58 24 39 60 51 72 83 94 78 89 96 92 74 64 64 77 56 53 60 82 97 90 98 98 99 74 86 88 82 85 81 76 71 70 81
17 17 17 22 22 34 43 44 38 34 34 41 54 23 30 57 47 68 83 86 88 90 96 96 98 70 74 79 64 63 97 98 98 92 97 97 100 84 75 86 81 80 78 78 76 65 68
16 16 16 18 15 29 41 44 41 34 35 39 49 31 26 52 49 70 78 86 88 90 96 97 92 87 88 97 61 75 69 98 98 97 93 98 95 89 77 75 77 76 75 68 67 74 80
11 12 10 12 10 23 37 43 38 34 35 40 48 35 23 48 51 63 69 80 92 92 97 98 87 66 71 100 90 90 67 97 98 97 95 99 86 98 94 78 74 87 74 91 89 89 87
7 8 6 7 8 16 34 33 33 35 36 42 50 34 28 51 46 60 67 74 80 94 94 100 89 88 91 100 100 100 100 96 95 96 85 99 99 100 100 81 82 97 80 72 86 97 79
5 4 4 4 6 12 23 30 31 31 36 47 51 30 33 47 48 53 59 74 73 84 84 97 98 98 100 96 99 99 100 97 84 78 94 94 99 100 100 92 75 86 80 67 62 73 77
2 2 3 3 5 11 23 32 31 28 37 49 51 28 44 59 54 54 60 74 78 86 84 82 90 96 100 100 90 99 97 73 61 66 90 88 93 99 99 84 80 77 74 74 69 80 81
2 2 2 4 5 10 20 30 28 29 43 51 41 28 48 64 60 60 65 75 82 85 83 82 80 88 90 95 86 90 80 81 79 77 96 83 74 100 100 91 92 87 84 78 73 72 78
2 2 3 4 4 7 16 29 28 30 41 50 44 40 57 80 63 74 70 71 78 78 81 86 79 80 81 86 87 89 95 99 99 95 94 81 69 97 100 96 92 95 85 83 76 90 81
2 4 4 4 4 9 17 29 26 29 38 56 37 40 68 83 77 85 78 77 79 76 77 82 82 79 82 81 78 86 89 95 99 97 94 83 95 99 100 100 100 99 98 93 88 83 79
3 4 3 4 8 15 26 29 27 28 32 48 45 40 74 88 79 76 80 87 87 77 68 68 70 82 85 83 81 86 85 97 100 99 98 93 87 81 73 73 81 93 94 92 93 96 87
3 3 3 6 10 21 30 30 31 31 32 40 48 33 56 96 85 86 88 90 91 92 81 74 78 86 81 80 71 83 87 91 97 97 96 96 91 80 90 93 80 77 76 73 93 82 95
3 2 4 7 14 23 32 33 35 34 31 32 45 36 59 77 90 84 80 94 90 88 89 90 87 88 80 81 74 73 76 72 90 93 90 89 76 68 82 81 76 83 86 79 80 84 90
2 3 4 7 14 25 32 33 35 35 36 37 40 47 43 76 96 93 86 91 86 82 92 94 95 95 90 86 82 81 80 75 77 74 75 73 72 66 69 69 69 67 48 57 54 64 63
2 4 3 5 11 24 31 32 34 35 37 39 40 48 43 63 89 94 93 97 83 91 94 94 92 99 92 88 91 86 83 82 80 75 73 67 72 69 72 76 91 39 48 42 41 40 49
3 3 2 3 7 20 26 27 30 33 36 41 44 45 54 47 78 91 89 97 89 86 96 95 95 94 92 93 86 86 85 87 86 84 86 82 78 79 80 95 57 35 38 47 53 44 44
3 2 2 2 4 10 18 22 24 31 38 40 46 48 50 58 60 62 91 91 92 94 95 99 95 93 96 96 88 84 77 74 80 82 98 99 94 91 94 90 91 62 72 67 63 54 60
2 2 1 2 3 5 6 16 30 36 44 49 49 53 54 55 60 69 39 49 74 94 96 95 100 96 91 92 95 96 83 88 86 84 86 90 88 91 84 90 72 58 59 64 71 64 74
2 1 2 2 2 4 9 23 33 40 47 56 59 61 61 60 60 63 74 53 32 45 94 99 84 87 95 89 94 92 86 82 84 81 79 74 79 85 85 88 82 65 65 70 71 62 77
2 2 2 2 2 3 5 12 22 38 49 60 64 60 60 62 63 56 63 72 69 39 35 51 77 69 75 84 87 87 89 85 85 83 79 84 78 73 69 60 61 63 66 70 72 72 83

GFSGBSN_700_rhum_048.txt.gz
RH
43 40 33 36 31 45 47 42 42 55 23 44 47 42 54 59 32 28 26 37 54 74 77 70 70 71 76 78 93 82 96 98 94 30 96 97 77 40 64 87 85 99 82 72 99 100 90
49 38 31 38 38 44 49 41 41 48 40 35 52 52 58 60 40 29 31 44 60 63 57 58 72 81 83 81 95 78 95 97 83 33 93 100 95 52 74 97 91 86 99 95 90 98 93
65 48 30 35 38 45 42 37 36 45 57 26 44 55 62 57 55 31 32 40 56 46 47 54 74 76 85 96 95 99 100 80 97 34 90 100 95 59 71 95 100 92 96 99 98 97 99
35 31 25 34 35 38 39 36 36 38 50 55 31 48 65 63 70 42 32 36 49 48 39 45 50 92 89 79 94 97 99 78 90 50 47 90 98 55 77 97 76 98 97 100 92 100 98
26 32 25 25 29 37 42 35 41 34 46 53 33 39 58 69 65 65 36 31 37 48 44 45 47 57 77 87 97 99 99 86 92 48 72 99 93 73 73 83 96 99 89 96 93 86 83
24 26 26 23 31 33 41 38 36 36 38 45 57 28 47 69 65 77 56 37 34 38 45 45 44 55 44 67 98 98 87 98 97 68 97 98 99 86 93 86 91 96 84 79 77 77 82
28 18 22 21 32 39 43 43 38 36 36 43 50 30 38 69 64 74 78 57 42 38 45 47 48 50 48 46 95 95 87 99 98 87 100 95 98 94 86 79 70 61 65 74 95 81 75
13 10 16 16 26 38 48 48 44 38 36 38 48 50 32 60 61 73 84 74 72 55 43 44 57 57 45 39 42 75 95 95 98 83 98 98 94 95 91 72 72 72 65 68 77 80 80
12 9 10 11 24 34 42 48 46 41 38 37 44 58 27 52 56 71 82 88 82 80 71 49 42 45 45 40 40 63 93 96 98 73 97 98 91 90 77 94 73 88 75 72 66 80 86
12 6 6 8 21 22 35 42 38 40 38 36 44 55 25 44 54 60 86 90 91 90 96 85 56 59 43 56 49 51 88 92 97 97 97 98 84 77 82 96 82 75 78 70 69 76 88
7 6 5 7 14 13 22 30 35 36 36 36 45 54 24 44 52 64 86 92 94 95 96 98 97 50 62 77 62 90 66 71 85 92 97 98 85 70 69 87 79 89 85 83 76 82 83
10 4 4 5 7 8 12 22 28 30 34 38 45 54 23 46 53 63 86 89 90 93 96 98 78 63 81 78 82 100 100 71 96 99 98 99 98 85 76 91 87 82 82 85 76 71 82
6 4 3 3 4 5 8 18 27 28 34 40 47 50 24 50 49 56 79 81 96 94 95 99 99 70 89 80 69 81 94 98 92 97 96 98 99 97 76 92 90 85 76 88 89 90 90
6 4 2 3 3 4 6 17 28 31 32 42 51 45 27 54 52 56 68 77 87 88 98 94 88 76 99 77 76 64 98 97 95 83 96 98 99 97 85 80 90 97 79 71 87 96 82
4 3 2 3 3 3 5 17 28 28 32 43 51 37 32 57 58 49 61 79 84 91 95 97 98 98 92 95 96 100 91 95 93 76 84 98 99 98 94 81 80 91 88 74 62 76 79
4 2 2 3 3 2 4 15 27 26 34 48 50 36 45 63 60 65 71 80 92 95 96 98 98 98 93 94 92 99 80 82 79 79 86 92 97 100 89 95 89 82 77 84 72 81 83
3 2 3 4 3 2 4 14 27 25 32 47 42 39 53 65 70 62 76 84 94 94 88 94 97 100 95 97 100 100 85 64 69 74 92 85 83 97 99 98 93 87 85 80 72 66 80
2 2 3 3 3 3 6 15 25 25 30 42 48 45 62 79 66 75 77 79 81 84 87 87 89 96 98 100 100 94 87 83 81 67 76 79 84 99 98 96 89 88 83 78 72 87 79
2 3 3 3 4 5 9 19 24 26 29 44 46 48 68 86 74 79 84 89 84 81 82 83 86 84 86 90 89 93 88 94 90 84 73 83 95 99 98 99 95 96 92 87 83 76 72
2 3 3 3 4 5 10 19 25 27 29 38 42 52 69 89 78 78 79 85 86 81 73 72 78 84 83 83 80 88 91 98 98 96 92 92 89 81 75 68 69 86 73 83 93 96 86
2 3 2 4 4 7 10 18 24 27 28 34 42 39 53 81 94 85 86 85 84 91 84 81 84 86 86 80 77 83 85 97 99 97 99 98 96 91 82 82 82 77 84 83 92 88 98
2 3 3 3 4 6 9 22 26 27 26 29 36 41 60 77 88 88 88 90 90 82 90 92 89 89 82 80 76 85 82 85 88 92 98 96 91 79 72 66 82 84 80 82 80 76 84
3 2 4 2 3 4 6 17 22 23 26 31 33 42 48 67 89 90 87 90 96 82 87 92 82 84 91 84 83 82 82 84 88 82 88 92 89 79 67 68 80 79 43 52 59 61 60
3 3 3 2 2 3 4 9 16 17 21 29 33 40 49 62 83 87 89 94 95 90 90 96 93 93 94 94 90 88 87 85 80 78 77 77 75 75 70 71 88 39 48 48 47 46 51
2 3 2 2 2 2 2 3 10 17 24 32 35 41 46 53 69 88 88 96 96 91 90 89 96 92 98 95 96 96 92 88 88 89 89 86 78 73 74 86 50 39 59 57 56 47 58
3 3 2 2 2 2 2 4 11 21 29 36 41 43 47 50 64 79 91 85 92 92 90 100 98 98 100 99 95 86 80 80 84 87 96 98 95 95 94 92 86 56 72 72 70 64 84
3 2 2 2 2 2 3 3 9 24 36 40 41 47 52 51 54 60 57 80 87 88 97 100 100 99 97 94 92 91 87 90 90 86 90 88 89 92 95 89 70 61 61 62 68 71 70
2 2 2 2 2 2 2 4 8 31 38 42 44 46 50 54 56 60 67 50 41 65 92 96 92 82 96 92 90 88 86 88 89 86 84 82 83 81 81 83 78 68 70 73 71 74 73
2 2 2 2 2 2 3 5 12 36 39 40 41 42 50 52 54 55 58 68 69 36 41 68 80 70 79 83 84 83 86 86 85 82 82 84 85 90 80 68 69 76 78 76 84 83 79

GFSGBSN_700_rhum_054.txt.gz
RH
44 29 21 18 17 24 30 31 38 38 33 34 37 42 48 36 52 57 53 22 25 40 34 38 43 48 52 66 63 67 68 95 98 93 90 85 91 96 90 99 94 89 90 95 96 91 86
48 30 14 15 17 22 29 35 41 40 38 37 39 40 51 32 55 64 62 33 24 38 33 38 40 64 58 66 61 64 66 73 97 97 97 96 100 100 97 97 88 97 99 98 99 96 98
86 94 74 23 20 21 29 36 42 44 40 44 41 38 43 38 44 68 64 44 26 38 33 35 37 57 74 73 82 65 68 89 92 95 99 98 99 90 100 96 91 67 73 81 81 84 80
82 99 98 54 28 26 24 34 40 40 39 45 44 40 39 54 35 71 65 61 36 30 44 36 41 44 84 81 96 86 70 92 90 97 98 98 99 86 76 78 74 72 88 90 77 77 81
72 100 100 98 37 31 26 28 41 31 36 44 44 40 40 56 32 68 67 74 51 32 36 46 44 46 69 87 96 100 93 97 94 58 84 98 98 81 64 86 91 95 80 94 90 92 90
94 100 100 100 94 45 29 20 33 22 33 42 40 38 41 56 31 64 69 80 65 40 37 38 44 52 53 76 97 94 98 96 97 62 74 91 98 81 96 84 66 65 66 89 96 93 96
95 98 100 100 92 37 21 19 20 18 29 32 34 37 43 56 30 58 69 81 75 54 40 40 44 48 52 78 96 96 95 97 91 80 88 99 98 94 94 84 67 66 73 87 93 86 97
91 100 100 99 96 32 14 16 10 17 29 27 33 38 44 56 29 57 69 83 83 73 53 39 52 50 47 84 91 94 90 98 98 100 86 98 98 98 96 96 88 88 75 73 94 97 97
89 94 100 98 40 15 12 10 7 14 27 28 31 39 45 52 31 60 73 87 88 84 84 43 38 50 48 80 79 88 81 97 100 100 91 97 98 98 93 91 82 81 73 75 73 92 86
90 100 92 72 14 8 7 6 5 14 24 26 29 41 45 42 45 60 74 90 91 88 88 53 46 48 55 70 87 95 77 98 99 95 72 98 98 100 93 90 80 78 75 84 83 73 62
89 92 78 30 8 5 6 5 4 11 21 23 30 42 46 34 42 60 77 89 90 87 87 91 75 40 46 79 75 97 77 98 85 62 90 97 99 98 96 92 82 83 56 79 75 65 75
90 94 80 17 6 4 5 4 3 10 18 22 32 45 44 34 52 57 78 87 87 92 92 94 52 54 71 81 89 100 98 97 96 76 97 97 98 99 99 80 66 73 84 85 84 74 70
86 92 77 25 5 3 5 3 3 10 17 21 35 44 41 35 55 57 77 83 95 95 96 88 63 82 78 96 95 100 100 98 93 89 97 98 99 96 96 87 71 73 70 82 78 82 60
90 89 86 26 5 3 4 3 4 12 16 22 35 44 42 40 54 53 74 90 97 93 96 86 70 71 91 95 99 96 90 98 94 90 98 98 98 97 92 97 89 80 58 57 62 62 50
99 96 88 21 4 3 4 4 6 13 17 21 34 43 38 44 51 50 82 93 99 99 88 54 59 69 88 86 95 100 97 96 96 95 98 95 99 99 95 93 87 98 87 68 68 68 62
98 99 99 56 6 3 4 4 8 14 17 19 36 43 46 46 57 74 84 93 98 99 94 82 97 59 89 83 85 98 99 98 88 93 96 98 99 97 92 97 84 79 84 72 72 74 53
96 100 99 69 9 3 4 4 9 14 19 21 33 44 47 48 58 79 94 98 97 98 98 98 100 92 94 81 66 79 98 96 79 89 96 88 89 99 94 91 92 88 89 79 71 70 51
99 100 100 98 14 3 4 4 9 14 20 23 30 43 44 52 70 81 93 95 97 100 97 97 97 85 90 70 46 62 93 96 90 90 98 85 98 100 99 88 89 91 84 78 66 75 73
100 100 97 84 12 3 4 4 10 15 18 23 28 36 40 48 83 83 92 92 90 94 97 96 95 89 86 86 78 90 84 88 92 92 91 87 96 97 98 96 91 93 82 74 79 72 81
100 100 100 63 5 3 4 4 10 14 20 24 29 35 40 51 73 80 90 90 85 87 86 96 94 93 86 84 86 93 90 93 86 78 90 89 87 81 65 73 79 83 90 80 79 84 68
100 100 98 25 3 3 4 3 7 9 15 20 26 31 36 54 76 82 88 90 84 87 81 87 97 92 90 85 90 91 90 95 95 86 86 91 86 80 70 72 78 76 76 75 80 66 81
100 100 99 24 3 3 3 3 4 7 10 17 23 31 34 49 83 84 88 89 85 76 81 82 83 85 79 75 74 83 89 99 97 94 93 92 90 87 88 82 79 75 71 71 74 70 91
100 100 100 62 4 4 2 2 2 5 10 16 22 29 35 45 84 94 84 91 88 83 81 83 82 86 85 79 77 85 88 91 89 91 89 96 90 80 80 70 63 56 49 46 47 46 63
100 100 100 55 3 4 2 1 2 6 14 20 21 27 33 45 74 90 87 90 94 89 81 81 81 84 90 95 91 89 85 90 89 85 89 89 95 82 70 65 63 48 49 48 50 54 62
100 100 78 44 3 3 2 2 2 8 16 22 24 28 32 40 61 90 90 85 90 95 91 86 88 91 93 98 98 97 98 94 93 89 87 88 86 77 85 74 61 76 71 68 75 94 87
100 100 78 12 4 2 2 2 3 13 19 23 26 29 34 37 52 78 88 86 92 95 87 88 96 93 95 96 94 94 87 93 96 98 93 94 86 87 82 83 63 66 69 71 70 83 81
100 100 56 8 3 2 2 2 8 17 19 23 27 31 35 36 45 67 82 89 95 96 90 97 100 93 93 90 87 96 94 81 92 91 89 95 90 97 97 86 75 77 88 86 85 88 80
100 98 18 6 3 2 2 3 16 19 18 20 27 33 34 34 40 55 66 77 81 82 84 89 91 89 91 95 93 87 94 91 93 93 95 97 95 92 95 87 76 81 89 93 88 85 82
100 93 17 3 2 2 2 12 20 18 19 20 26 33 33 35 42 49 57 57 50 62 77 86 87 79 89 93 86 84 87 89 86 86 95 98 90 99 92 95 83 86 90 92 94 88 84

GFSGBSN_700_rhum_057.txt.gz
RH
73 56 60 83 66 79 49 36 37 43 41 34 42 43 37 41 47 39 64 59 38 21 31 29 30 37 43 67 91 60 77 84 84 96 71 90 74 87 96 90 88 99 97 91 90 100 96
85 88 56 73 88 92 100 84 65 44 30 29 38 44 39 42 52 37 65 63 47 26 32 30 32 33 68 75 81 60 55 70 86 96 86 83 78 98 92 92 84 99 98 94 99 98 86
100 94 84 100 87 97 99 98 89 45 24 28 37 43 39 42 53 35 64 63 58 36 30 34 34 37 62 100 80 59 53 54 77 95 99 86 96 99 89 78 86 91 85 99 95 97 95
99 99 95 85 95 100 100 100 84 40 18 28 33 40 36 41 54 34 62 64 66 45 30 37 40 40 76 90 81 72 58 62 58 88 99 84 90 90 98 86 95 98 90 98 82 83 99
98 98 93 100 79 98 100 100 49 32 14 28 30 33 34 41 54 32 64 66 71 55 31 35 42 43 99 82 93 83 79 67 92 87 99 98 94 99 87 91 88 89 93 95 85 91 94
93 100 97 84 100 93 100 92 35 19 13 27 28 33 34 42 53 32 66 69 73 62 34 38 40 59 78 69 96 86 84 95 87 94 97 98 98 81 93 84 75 62 46 64 77 97 99
100 100 100 81 100 100 100 62 19 12 13 28 30 32 36 44 47 38 63 75 78 66 39 39 46 47 47 94 97 98 93 98 86 98 98 98 98 93 73 69 53 49 43 57 68 93 95
100 100 97 90 99 100 93 36 14 8 12 26 29 31 39 48 35 51 66 80 84 76 62 38 46 44 46 94 96 95 90 98 99 96 98 98 98 83 74 69 64 46 48 66 90 90 94
100 97 94 92 98 94 51 40 10 6 10 24 27 33 41 47 29 54 68 83 85 82 85 48 36 43 51 89 96 97 96 97 94 100 96 89 94 98 84 83 72 60 48 52 78 89 93
97 100 97 93 99 66 46 8 7 5 11 21 26 38 42 43 39 57 72 86 86 80 98 87 84 57 53 76 98 86 88 96 98 91 100 90 98 97 91 78 69 59 58 67 70 79 68
90 100 100 91 99 75 55 8 5 5 13 19 28 37 40 36 41 54 73 82 82 79 94 84 86 50 57 78 88 94 86 100 98 97 83 82 98 98 87 78 70 65 70 72 68 64 44
90 100 100 91 100 84 28 7 5 6 12 18 27 36 38 36 52 54 75 79 81 94 91 83 70 69 79 83 80 77 98 97 99 82 71 87 97 98 82 81 80 69 72 72 68 55 57
90 100 99 98 100 59 23 6 5 8 13 17 25 37 39 35 55 51 75 83 97 95 94 79 97 96 100 81 91 96 98 97 94 92 98 99 99 98 92 91 78 75 68 65 65 75 58
96 100 98 99 100 84 41 6 6 8 13 17 25 36 36 42 50 52 79 86 95 96 98 60 93 88 98 90 83 98 100 96 87 87 87 98 98 98 91 82 78 78 56 51 53 52 44
91 99 100 98 98 100 63 6 5 8 13 18 26 33 37 42 49 67 83 98 96 95 81 81 80 94 94 96 90 98 97 98 97 79 78 93 98 100 93 92 83 75 62 67 62 53 46
77 98 100 99 99 99 74 9 5 8 14 21 28 33 41 46 58 75 93 95 91 93 69 93 93 83 81 92 89 95 96 95 88 82 84 94 95 99 87 86 89 84 80 63 70 66 41
75 100 100 100 100 100 90 14 5 7 14 20 29 34 42 53 59 79 94 89 96 93 98 97 98 88 78 76 79 84 94 84 85 89 82 98 82 100 98 98 87 92 89 79 67 63 52
86 100 100 99 100 92 74 13 5 6 14 22 27 39 43 58 69 83 93 93 88 93 96 100 100 100 77 71 75 84 96 98 94 98 100 93 97 94 97 92 91 88 73 70 60 68 55
91 100 100 100 100 100 79 8 5 5 14 23 27 32 38 54 97 96 89 92 87 91 92 100 87 72 83 92 84 99 100 92 93 99 98 95 95 98 96 93 84 92 85 81 68 67 73
89 100 100 100 100 100 48 6 5 4 13 20 26 31 37 53 59 84 95 95 91 89 93 82 92 87 86 100 92 93 96 87 96 91 86 89 90 84 70 70 74 84 83 88 80 82 64
97 100 100 99 100 91 28 5 4 4 10 17 25 32 34 53 64 76 87 85 98 92 86 90 88 88 95 94 100 100 83 83 78 80 88 87 92 79 80 66 76 89 81 82 91 79 73
98 100 100 100 97 80 19 4 4 3 7 12 20 28 33 50 64 77 81 87 98 81 90 80 92 86 84 90 87 100 87 96 88 86 81 82 84 84 81 76 75 75 81 89 91 90 88
100 100 100 100 85 77 22 4 3 2 5 10 19 26 33 47 72 99 94 81 82 76 85 82 85 93 78 72 67 78 89 98 96 99 95 91 90 85 88 77 73 65 66 78 86 87 87
100 100 100 100 77 96 36 4 2 2 5 13 21 26 32 46 86 99 79 85 83 81 75 82 79 95 86 84 82 82 84 84 88 91 94 94 98 89 87 64 67 60 51 52 56 75 86
99 100 100 100 70 97 23 4 2 2 7 16 22 25 31 48 74 82 78 86 83 87 79 79 80 83 94 90 96 93 99 97 92 87 89 96 96 89 84 64 57 69 74 76 84 100 82
99 100 100 100 99 83 9 3 2 3 12 19 24 26 31 42 63 75 78 82 86 87 86 84 84 83 86 89 97 94 90 89 95 86 84 83 86 81 78 66 52 82 68 64 69 78 85
100 100 100 100 48 15 8 2 2 9 16 21 26 27 30 37 49 69 77 78 82 83 90 79 83 85 87 97 97 86 87 83 90 96 97 95 96 94 88 76 67 73 71 80 86 80 89
99 100 99 100 56 20 9 2 4 14 17 21 26 28 30 37 50 63 68 76 82 86 94 76 83 90 86 90 94 96 91 88 81 89 91 92 89 86 80 85 72 75 82 90 89 81 74
99 99 100 100 65 24 5 2 11 15 16 22 26 28 32 36 40 56 57 70 74 73 73 71 82 80 81 84 77 75 80 84 84 78 84 91 78 84 91 92 79 75 79 77 74 68 62

GFSGBSN_700_rhum_060.txt.gz
RH
95 99 100 99 81 89 81 99 99 89 45 15 16 22 33 42 39 44 42 48 59 56 31 30 29 29 30 51 85 62 70 67 91 93 98 67 88 97 90 92 99 97 89 99 94 83 95
98 92 100 100 97 99 99 95 100 99 56 12 18 23 30 39 39 43 42 46 62 61 38 32 33 32 35 81 85 71 52 65 76 82 97 88 86 93 88 92 95 92 83 86 100 98 99
96 90 93 99 99 100 90 100 94 88 42 10 18 22 26 35 38 44 39 49 64 64 44 31 39 36 38 83 97 83 57 50 66 82 97 94 98 89 96 98 86 99 83 93 99 98 89
91 93 92 99 100 95 94 98 100 89 25 7 18 23 28 34 38 49 34 52 68 66 48 31 38 43 50 61 82 77 55 49 54 69 94 85 99 97 91 87 88 78 98 99 99 87 99
93 94 86 99 100 98 69 100 100 100 38 7 19 24 28 35 38 48 33 55 72 67 41 34 36 39 96 61 66 85 79 68 55 84 98 81 88 90 89 88 93 86 79 97 98 96 100
88 90 79 99 100 96 98 92 100 57 28 6 18 23 29 36 42 39 40 58 76 72 42 42 41 63 93 83 94 82 77 69 66 84 95 100 98 95 92 94 93 96 86 88 97 91 89
77 92 83 99 99 91 84 98 94 16 10 6 16 20 31 38 47 30 50 69 82 85 53 38 46 44 46 68 96 91 67 81 94 97 97 99 94 90 77 72 70 72 65 67 66 90 92
64 91 84 96 100 96 100 99 64 44 6 6 18 21 34 38 42 40 55 77 86 84 94 42 36 36 40 94 98 95 83 94 97 98 90 98 94 78 90 80 65 60 64 81 81 97 83
58 80 83 89 100 100 98 100 58 18 5 8 17 22 36 38 34 47 59 84 86 88 97 48 38 33 54 88 97 99 93 92 89 98 98 98 97 98 92 79 92 80 58 86 74 77 95
57 80 80 83 100 100 100 100 61 10 5 10 17 25 35 36 38 46 67 86 89 88 96 89 67 54 53 74 97 95 86 98 98 98 94 98 91 89 86 93 70 53 46 61 62 70 82
80 76 79 79 98 100 99 100 48 11 6 12 18 24 34 36 36 45 74 83 88 84 96 81 38 52 70 86 97 94 98 99 95 98 78 90 85 91 79 69 65 57 63 95 71 74 65
81 83 98 82 98 100 100 99 60 14 5 14 17 25 33 36 42 47 74 78 82 99 94 55 47 72 95 99 83 96 96 91 92 77 82 95 98 100 96 76 86 65 70 74 66 62 69
99 93 88 68 96 100 100 80 90 22 6 13 18 25 34 35 44 49 76 81 97 88 100 84 80 94 90 69 95 98 94 88 96 93 92 80 98 100 88 77 64 59 64 74 82 79 81
100 97 86 79 98 100 100 82 98 29 8 13 19 25 34 34 42 57 83 93 93 99 98 83 94 95 93 83 86 93 96 80 83 94 100 97 98 96 92 82 70 70 54 62 67 81 66
100 100 89 84 98 100 100 94 94 59 8 14 20 26 34 36 45 72 93 92 98 96 77 93 94 96 85 80 87 95 94 96 90 98 93 97 99 98 99 85 77 74 69 67 60 49 60
100 100 92 86 94 100 99 100 94 58 10 14 19 27 33 40 56 76 90 92 99 84 53 90 84 86 74 77 91 97 94 92 86 81 74 81 95 96 91 83 70 72 73 67 59 69 46
99 100 95 86 89 100 100 100 98 41 10 16 19 26 34 44 65 74 100 99 100 91 82 89 77 91 76 78 77 81 94 92 84 82 69 81 84 98 89 87 84 83 79 67 61 59 84
100 100 99 89 86 100 100 100 99 32 9 18 21 25 34 46 71 73 99 99 99 100 100 98 78 90 78 72 77 83 97 98 92 82 85 86 91 99 97 98 97 89 82 69 67 65 56
100 100 100 99 96 100 100 100 100 18 9 20 21 27 34 44 82 99 85 90 99 97 98 98 79 80 84 74 80 93 92 84 99 90 93 97 92 96 98 95 93 91 84 81 71 65 71
98 100 99 100 99 100 100 100 99 9 9 19 21 24 33 45 79 97 90 93 83 91 96 99 92 90 97 92 93 94 99 99 97 93 89 93 81 85 80 75 67 68 74 79 77 76 69
99 100 99 97 100 100 100 100 90 8 9 15 20 25 26 41 57 97 97 92 82 82 88 94 87 92 95 93 95 98 100 98 92 89 87 90 91 86 85 78 80 80 76 72 82 65 78
99 98 100 100 98 100 100 100 44 7 7 12 15 21 26 46 66 76 93 91 91 78 92 79 96 80 85 97 98 96 89 99 98 86 84 86 87 82 77 72 72 72 85 83 79 82 81
99 96 100 100 98 100 100 90 14 6 4 10 14 22 26 38 66 85 82 84 90 67 86 82 99 88 73 71 70 85 85 92 99 94 91 89 81 77 83 77 70 67 66 68 76 84 89
99 99 99 98 100 100 99 100 22 4 3 8 19 24 28 38 71 89 95 86 75 71 70 73 79 92 77 74 79 86 92 85 89 98 99 96 90 82 82 60 83 64 56 54 72 81 78
99 98 100 100 100 99 100 100 26 3 3 9 20 24 30 48 94 100 98 80 80 78 70 67 68 70 84 81 84 88 93 94 86 85 89 94 90 92 91 72 64 67 61 70 84 93 73
100 88 92 99 99 100 99 100 13 2 4 14 22 27 29 45 71 88 78 85 84 82 79 76 74 76 78 85 81 92 87 87 94 81 81 82 87 86 77 70 62 82 73 64 66 88 77
99 73 98 99 99 99 99 93 6 2 6 18 26 28 28 31 44 58 78 81 98 93 96 84 80 77 78 79 90 86 87 83 88 96 80 83 87 85 85 78 71 73 74 72 82 79 91
99 99 100 99 99 99 99 66 3 3 13 24 28 29 28 32 41 51 55 70 77 79 80 75 84 82 81 97 95 93 91 80 82 91 92 80 81 85 86 93 81 74 77 83 89 98 86
100 93 99 99 99 99 96 57 3 8 23 25 30 29 31 38 38 54 66 70 72 72 72 69 76 77 74 97 81 80 81 79 82 82 80 87 79 82 84 92 89 87 83 83 80 74 71

GFSGBSN_700_rhum_063.txt.gz
RH
97 98 88 87 91 99 100 99 99 100 100 99 91 8 16 22 28 32 37 44 35 56 59 45 29 31 30 40 63 53 63 66 80 96 96 88 67 87 97 85 99 100 99 95 90 98 90
92 88 92 91 83 88 100 100 88 96 99 88 84 7 16 23 30 32 37 42 36 59 64 47 31 34 33 35 62 67 51 65 66 93 99 81 79 82 83 77 100 97 88 97 98 93 97
96 94 89 94 88 88 95 98 96 99 93 100 37 6 17 23 30 34 39 37 43 59 67 47 31 36 38 40 69 93 61 51 52 92 95 98 97 89 99 85 91 95 93 95 97 98 94
70 85 93 94 87 83 99 100 95 89 97 91 11 6 18 24 31 34 42 32 54 66 67 39 31 33 39 66 64 75 81 52 50 72 95 97 94 91 93 93 97 100 99 99 95 98 97
82 59 84 95 92 84 98 96 93 100 88 75 12 8 17 26 33 35 39 39 58 74 64 33 34 34 70 67 69 83 86 78 54 55 83 93 93 98 99 96 97 100 99 96 99 90 100
75 76 56 85 96 92 96 98 98 100 100 59 8 9 18 28 34 42 33 51 66 75 60 38 48 49 66 53 88 81 78 76 75 71 88 97 94 99 98 98 98 71 70 83 87 95 100
35 73 69 62 87 99 96 96 100 100 100 30 7 11 19 32 35 36 42 58 74 78 59 28 35 40 48 85 96 92 88 75 71 95 87 90 96 96 98 81 73 73 79 65 74 85 96
23 39 70 66 82 98 100 100 99 98 99 25 7 12 21 35 35 34 49 67 76 73 41 30 33 40 54 95 97 95 76 95 89 99 90 83 90 96 98 98 84 67 68 62 67 91 98
3 59 70 86 89 94 100 100 99 99 98 18 8 13 25 33 32 39 51 74 79 80 69 72 52 46 74 97 97 100 84 86 97 97 95 79 71 98 92 92 86 91 74 60 58 72 95
2 33 91 97 94 91 100 100 100 99 94 18 8 14 26 33 32 42 58 71 81 81 85 66 53 69 81 97 97 96 90 87 98 100 99 97 90 88 81 76 78 80 72 68 76 96 91
2 6 83 100 99 96 99 100 91 100 81 24 9 15 28 34 31 44 60 71 76 76 96 58 46 69 96 98 95 94 98 90 97 96 95 99 89 99 99 80 87 65 64 63 76 70 69
2 3 64 100 100 95 97 100 88 100 99 46 9 17 29 32 32 43 65 72 81 88 88 45 55 79 89 92 98 97 98 95 96 90 98 100 93 98 97 92 89 76 73 98 98 90 73
11 13 37 97 100 95 94 100 100 100 96 66 9 18 29 32 34 41 69 80 89 83 86 68 76 90 87 98 93 88 88 87 86 87 97 97 98 94 92 96 86 88 71 98 96 78 77
79 92 84 95 100 100 89 100 100 100 98 69 10 19 28 32 33 40 77 88 86 82 88 66 87 92 86 85 92 90 89 92 92 81 88 97 98 90 76 73 71 71 58 62 85 93 73
88 99 100 91 100 100 83 100 98 100 100 52 10 22 32 31 36 51 83 93 85 77 73 77 82 81 77 79 89 88 92 92 100 92 93 96 97 91 82 70 61 67 68 60 55 55 63
97 92 99 88 100 100 84 100 86 100 100 45 12 22 33 34 43 65 90 97 98 57 83 91 89 85 71 86 89 91 89 84 86 79 88 92 98 92 85 78 67 71 72 65 59 63 58
97 97 95 96 100 100 83 100 90 100 100 38 12 23 33 39 54 71 98 98 99 63 66 82 79 84 71 79 84 91 92 94 72 73 70 83 92 99 88 79 78 76 71 62 60 63 84
98 98 72 98 99 100 84 100 95 100 99 34 16 22 34 43 60 91 100 100 99 92 88 74 82 81 73 78 83 89 98 95 70 75 76 71 86 92 97 82 73 75 73 70 62 61 57
98 97 82 98 99 99 88 100 88 100 91 16 16 25 31 48 68 97 99 100 97 91 88 76 77 72 72 71 82 85 92 98 96 74 84 81 83 98 91 92 80 77 76 71 67 65 66
94 98 100 96 98 99 97 100 91 100 74 12 18 25 30 43 66 94 90 94 100 100 95 77 73 80 81 80 85 95 91 98 100 90 87 82 84 78 78 83 73 83 76 80 77 73 65
82 97 100 90 99 100 100 99 98 100 61 12 17 22 24 35 60 78 88 86 91 95 97 95 94 91 93 83 84 92 98 98 95 89 88 76 86 86 84 84 72 66 68 70 77 64 68
54 92 99 97 100 100 100 100 97 100 58 11 18 24 24 33 64 87 97 94 86 87 92 99 90 96 91 76 83 85 98 99 91 86 85 84 82 81 78 76 69 72 77 72 72 77 76
33 93 98 98 98 99 99 100 100 100 31 10 14 22 27 39 62 67 88 96 93 82 95 90 95 79 81 83 74 87 90 84 83 84 79 80 76 84 84 84 77 72 69 81 79 82 81
35 91 97 99 100 98 100 95 99 59 10 10 19 26 27 43 52 60 89 94 82 72 78 97 95 79 72 68 79 84 90 90 93 93 91 90 82 76 84 71 75 65 64 64 71 83 91
28 94 94 98 99 99 99 98 97 19 10 10 23 31 32 41 55 78 93 94 83 68 72 78 79 78 75 77 84 87 92 84 90 98 98 92 90 85 81 74 71 64 56 52 55 72 82
39 97 97 98 98 98 99 99 97 19 10 12 22 35 37 44 74 84 99 98 76 74 74 74 70 80 84 75 86 91 88 84 88 80 85 90 88 84 77 73 71 69 76 68 74 77 84
27 87 95 97 98 98 99 99 88 15 12 15 27 35 41 56 61 75 93 88 86 79 70 72 70 77 87 80 88 88 85 87 85 84 79 84 84 87 86 85 83 83 82 76 85 79 87
67 96 96 98 99 99 99 99 40 14 13 23 30 34 36 42 54 60 75 76 75 68 68 70 75 74 79 83 86 87 89 78 89 87 82 75 75 82 90 90 93 80 83 86 84 87 93
71 96 98 97 98 98 99 98 24 12 21 30 34 34 36 53 49 61 76 81 81 76 71 63 63 68 77 86 79 76 79 80 83 84 87 86 81 85 78 87 88 87 86 82 79 79 71

GFSGBSN_700_rhum_069.txt.gz
RH
14 37 71 83 77 84 86 85 89 91 85 100 100 99 100 99 83 11 17 24 28 38 38 33 43 58 55 37 28 26 26 35 41 45 70 97 98 97 94 87 81 82 84 82 95 94 75
7 10 17 44 79 87 86 82 88 91 89 100 100 98 100 100 37 12 20 26 33 40 33 42 61 63 43 27 23 30 38 54 64 62 53 96 90 98 93 96 76 63 100 82 100 87 85
4 5 7 12 12 46 83 85 83 90 99 95 100 100 100 100 21 10 22 28 41 33 41 58 68 49 27 32 33 50 53 56 64 54 55 94 98 98 82 98 83 66 91 84 100 98 85
4 3 3 4 6 16 52 88 85 87 93 99 100 100 100 100 17 12 24 33 36 38 57 69 58 29 29 31 54 63 67 66 66 57 62 97 98 98 98 98 77 75 87 99 100 92 100
5 4 4 3 3 4 28 69 98 89 92 99 100 98 100 100 16 12 26 34 34 52 69 66 31 34 38 48 50 58 82 76 72 59 70 95 98 96 98 95 88 82 96 100 99 97 96
6 5 4 4 3 3 3 55 78 94 92 98 100 99 100 99 15 14 25 31 41 68 70 36 30 34 35 36 58 83 91 78 69 84 92 96 98 96 99 88 99 89 95 99 96 97 95
8 6 5 4 3 3 3 3 48 99 99 90 100 100 100 98 20 23 22 33 55 72 50 29 25 30 37 58 91 97 93 78 86 90 85 93 99 83 77 97 100 88 82 97 100 99 97
6 5 5 5 4 3 3 3 26 99 95 100 93 100 100 99 24 27 22 34 66 69 46 45 37 42 68 99 92 90 87 93 86 94 89 99 98 83 67 89 86 97 92 95 99 99 78
5 5 5 4 3 3 3 3 11 93 99 100 90 100 100 91 36 27 25 38 67 72 64 34 42 70 92 96 92 82 86 90 78 97 97 100 94 76 76 91 96 90 74 94 98 98 78
9 11 12 10 9 8 6 3 11 63 91 96 98 100 100 98 33 30 26 44 63 69 62 32 55 82 89 97 96 98 92 97 94 98 100 98 97 92 97 97 98 92 73 70 88 84 90
12 14 14 12 17 23 15 6 5 65 87 98 100 100 100 100 27 32 27 52 64 64 61 36 47 78 98 99 98 96 86 99 92 98 97 93 74 82 79 98 98 85 78 73 81 92 88
30 26 32 34 58 70 54 27 29 83 100 98 98 100 100 84 27 33 31 60 66 73 50 41 54 86 97 96 97 98 98 98 98 96 98 97 94 84 97 98 85 78 78 98 94 86 92
58 85 66 46 55 81 95 61 43 98 100 100 96 100 100 68 27 36 34 68 72 65 42 49 64 89 99 93 99 98 98 98 98 98 96 100 98 91 89 99 94 89 85 98 97 98 97
88 76 68 66 100 94 96 93 51 100 99 100 100 100 99 33 34 32 41 78 76 49 44 52 72 87 88 94 100 100 98 100 93 91 99 100 99 98 87 90 86 89 74 74 88 95 91
95 76 56 80 76 91 95 97 99 97 99 100 99 100 98 27 37 32 57 84 50 44 46 60 74 84 88 78 89 93 98 95 98 98 97 97 98 100 98 80 77 94 87 66 64 70 67
84 69 52 77 80 61 96 97 96 98 98 100 99 100 56 32 35 37 76 85 53 45 50 59 77 81 93 77 83 78 91 94 100 98 83 92 97 99 99 90 97 84 78 69 55 74 66
80 57 58 60 54 58 99 89 63 98 99 99 99 99 47 37 35 54 80 88 60 50 53 64 73 81 89 91 89 82 76 94 100 96 77 72 75 95 98 86 83 75 64 59 59 61 78
73 55 66 41 29 60 99 86 96 98 99 99 99 94 62 41 36 71 81 86 61 51 62 68 81 83 82 83 88 78 77 87 92 81 74 65 72 91 81 75 71 67 59 56 47 66 58
72 61 64 41 22 63 94 98 97 97 100 99 99 92 52 40 54 72 78 97 58 51 63 73 76 78 83 88 83 77 67 71 79 68 66 68 69 81 75 69 69 70 67 59 52 52 59
81 67 64 36 19 65 91 97 94 97 98 98 98 94 77 44 49 63 94 94 72 75 69 76 78 77 78 75 83 78 70 73 72 59 57 60 67 60 68 70 69 65 64 70 64 55 59
83 62 51 19 17 50 90 97 97 97 98 98 96 53 40 30 54 67 97 87 80 90 78 80 82 79 77 80 86 93 82 68 68 59 56 58 68 65 65 70 71 67 63 58 60 62 61
74 58 54 17 16 30 100 89 85 98 98 97 98 40 19 23 52 79 99 97 92 85 77 82 77 79 75 69 79 92 96 81 74 67 71 68 80 84 85 81 76 72 69 70 75 76 69
83 64 56 14 19 56 95 92 95 97 97 97 97 42 31 35 56 83 96 91 93 89 71 64 67 68 81 82 77 84 96 94 84 85 78 72 76 82 81 77 72 68 70 71 74 74 75
76 66 57 16 26 91 95 94 98 97 98 96 96 60 31 41 62 81 90 84 89 81 59 78 84 87 83 83 81 99 97 93 90 86 83 76 72 77 74 75 74 62 60 64 72 78 76
71 54 32 21 58 100 82 96 97 97 98 98 69 66 42 51 76 97 96 88 93 90 82 74 84 84 88 78 84 92 92 92 92 83 84 79 73 66 70 69 66 65 59 58 63 70 71
67 37 18 23 85 94 94 96 96 98 97 80 78 70 49 62 98 87 98 94 93 94 90 84 85 83 82 83 76 76 71 77 85 89 100 87 84 76 83 76 80 62 62 60 58 57 52
63 18 22 26 94 96 96 95 98 99 98 88 75 61 64 72 85 100 98 92 92 92 87 84 79 81 81 83 77 76 76 77 71 78 92 96 88 84 77 77 63 58 67 72 73 57 61
48 18 58 86 86 94 96 96 97 98 97 67 58 59 67 70 84 100 99 100 94 85 78 81 85 88 87 84 80 76 84 78 76 72 71 68 75 80 85 84 74 61 71 74 66 72 68
20 29 100 98 46 77 96 97 97 96 68 49 46 56 65 74 82 99 97 98 93 84 78 71 71 72 80 82 72 75 78 79 77 73 70 72 67 66 63 66 63 64 69 71 72 68 66

GFSGBSN_700_rhum_072.txt.gz
RH
5 5 4 4 6 9 25 52 73 79 84 86 93 82 94 99 100 100 70 14 19 18 31 36 31 39 58 58 47 36 28 28 27 24 26 33 61 97 96 74 65 99 86 71 88 85 86
6 5 5 4 4 4 5 8 37 76 79 84 82 85 85 99 100 100 48 14 26 21 32 31 40 58 63 50 35 24 26 36 41 44 48 59 68 96 94 75 78 90 93 71 82 87 95
6 5 5 4 4 4 3 3 4 21 86 81 85 92 87 100 100 100 26 18 28 32 30 38 58 65 52 31 26 26 40 53 57 57 54 65 70 93 98 91 80 70 95 91 94 83 97
7 6 5 5 4 4 4 3 3 4 34 99 89 92 86 100 96 100 30 21 33 34 35 54 63 54 28 26 30 42 49 54 61 65 62 71 92 98 98 96 98 94 99 98 81 98 98
9 9 8 8 7 6 4 4 3 3 30 81 99 94 90 100 100 99 28 24 31 42 54 60 44 27 32 33 37 44 61 73 70 72 67 71 85 98 98 95 99 99 98 99 96 98 100
12 11 10 9 8 8 6 4 4 3 4 33 85 85 83 96 100 100 30 34 29 53 63 46 28 28 33 38 54 79 86 82 67 76 83 81 95 99 95 97 98 96 89 91 95 99 99
11 8 8 7 6 6 6 5 4 4 4 15 98 99 90 91 99 100 36 31 34 61 57 34 29 31 50 89 95 93 85 82 78 89 93 96 100 98 93 97 88 92 88 81 99 99 99
8 6 6 6 6 6 6 6 5 5 6 17 99 93 81 100 99 100 41 30 38 69 54 35 34 46 90 90 92 93 85 81 81 87 91 99 98 87 97 98 100 76 70 92 92 99 99
4 6 8 8 10 11 12 12 10 6 6 7 100 84 95 99 100 100 35 29 46 69 52 36 43 71 89 95 74 88 79 97 77 96 96 97 98 89 84 95 87 98 69 72 98 99 99
4 7 9 10 12 12 14 13 12 9 7 7 81 100 96 100 100 99 32 34 59 70 52 35 45 72 94 87 92 97 91 96 92 97 97 97 99 83 76 93 90 86 87 74 78 95 97
8 13 18 17 16 22 21 24 34 44 17 15 57 100 93 98 100 98 35 42 64 68 60 34 49 81 89 97 99 94 89 98 94 96 98 98 98 99 69 72 76 85 86 83 72 79 78
24 58 80 82 67 55 61 72 62 60 67 45 27 100 98 100 99 94 37 68 67 66 52 39 63 86 81 98 100 92 94 93 86 96 98 94 100 97 89 98 99 93 96 95 94 90 92
87 90 87 86 76 60 64 92 92 90 84 32 92 98 97 100 99 52 52 67 81 50 37 47 68 90 98 95 98 98 97 99 98 95 95 99 95 89 97 99 99 98 93 98 98 97 98
79 92 89 83 70 59 67 74 83 96 98 91 98 98 99 99 99 55 58 76 66 36 38 57 68 84 90 94 96 96 97 98 93 88 89 88 97 93 96 97 97 98 87 74 90 96 97
85 88 86 78 56 62 60 64 88 96 85 96 98 98 98 99 82 57 75 97 46 30 36 57 66 78 84 85 98 98 98 99 92 90 95 99 99 94 78 81 86 80 71 64 74 87 88
89 89 80 64 55 62 41 56 94 68 68 98 99 98 100 98 58 75 77 85 52 34 47 53 68 78 78 88 89 92 97 95 95 96 99 98 98 99 96 88 82 77 64 58 56 76 79
85 87 74 66 61 60 44 89 90 67 99 100 98 98 98 81 79 84 100 78 39 45 49 57 63 83 86 91 82 83 96 94 97 87 85 79 82 95 92 87 87 78 66 58 62 61 76
88 90 77 64 59 62 29 86 98 98 88 98 98 98 97 68 89 100 92 64 39 45 49 50 72 84 86 86 84 82 88 93 84 80 69 70 91 98 92 88 75 69 61 56 49 63 53
91 86 79 56 58 72 45 84 96 96 97 97 97 97 96 79 100 100 83 69 48 38 50 58 77 79 87 90 83 76 92 92 82 74 70 67 73 81 82 80 76 72 63 59 50 50 51
90 88 76 57 58 83 36 73 97 98 97 98 97 95 97 91 100 95 68 72 51 55 52 68 71 76 85 86 83 74 79 80 72 68 63 60 64 56 64 61 66 70 66 60 54 51 55
97 86 80 60 65 54 27 86 96 97 92 97 98 96 86 99 92 92 78 70 51 57 63 72 68 68 75 78 85 84 80 70 67 69 66 66 64 61 62 63 63 63 61 63 63 62 58
94 79 77 71 59 28 58 97 95 97 98 97 97 96 96 69 82 90 97 81 58 58 72 73 62 63 72 70 82 88 80 64 62 60 64 60 75 72 70 69 68 66 68 70 67 64 69
92 82 76 69 34 32 97 97 92 92 98 98 95 82 76 88 87 98 96 91 78 63 73 71 71 65 63 62 74 90 90 82 81 70 71 64 69 75 77 77 75 68 68 68 68 67 70
91 78 62 60 22 59 95 87 88 93 95 95 96 72 99 76 85 98 100 100 90 75 66 72 79 75 81 84 76 81 94 88 87 85 80 72 71 74 75 75 79 61 63 64 65 63 63
90 70 68 20 35 96 98 88 80 94 96 97 96 91 92 61 79 91 98 99 97 86 70 66 82 90 84 79 77 77 81 68 74 80 79 78 70 63 68 68 60 53 50 53 56 56 63
85 81 37 18 86 97 99 93 86 97 97 97 94 100 84 67 99 99 93 94 87 95 87 85 87 90 89 85 79 76 75 78 82 84 77 79 78 72 72 68 71 61 59 60 60 58 54
82 78 18 39 95 98 88 90 97 97 96 98 100 96 79 84 95 100 90 92 97 96 92 90 88 86 90 78 74 69 71 70 69 77 78 92 86 84 78 74 62 58 63 65 70 57 53
46 29 19 77 92 91 89 92 95 94 96 88 100 92 95 88 88 98 93 94 86 90 86 83 86 84 80 81 75 71 76 72 70 67 71 76 75 78 82 74 65 56 67 69 66 66 67
33 17 58 100 84 86 89 84 85 93 90 88 82 89 94 80 82 98 96 96 88 84 91 78 73 64 71 77 65 71 69 71 70 69 66 62 65 63 57 61 58 58 54 59 65 70 74

GFSGBSN_700_rhum_075.txt.gz
RH
10 9 8 7 6 5 4 4 4 4 4 12 54 77 84 88 81 87 98 97 100 43 22 34 31 30 38 50 56 55 46 33 23 20 23 26 22 33 38 72 91 91 57 58 68 76 75
13 11 9 8 7 6 6 5 4 4 4 4 7 71 80 82 80 78 99 99 92 19 22 34 31 43 58 61 47 31 24 23 29 43 43 42 49 57 67 94 99 81 71 60 90 73 77
15 13 12 11 10 9 8 7 6 5 4 4 9 9 77 84 77 79 93 99 96 24 25 36 44 61 62 43 24 21 23 34 45 54 52 52 55 69 76 80 99 95 71 70 82 69 88
18 17 16 15 13 12 10 8 7 7 6 4 4 24 40 92 95 89 100 100 98 26 29 48 61 59 37 24 26 28 35 44 51 52 63 76 70 82 96 88 98 97 85 83 67 69 80
22 20 19 17 14 11 9 9 7 6 6 5 4 7 98 77 83 84 100 100 98 28 31 57 56 38 30 26 35 37 38 56 74 74 74 76 73 77 89 97 98 88 99 87 98 72 87
24 22 20 17 12 9 7 6 6 6 6 8 6 10 59 59 71 99 100 100 99 39 38 68 40 38 29 44 66 80 84 72 84 77 86 78 88 83 97 100 97 98 98 98 92 89 100
22 19 14 8 6 7 8 9 8 7 6 7 9 8 44 98 100 100 99 100 94 37 54 63 33 36 50 72 72 66 72 82 78 87 83 92 99 94 98 100 96 98 98 98 98 92 87
16 8 4 5 24 30 12 16 15 14 13 11 11 9 8 72 100 100 99 99 80 41 79 53 36 55 77 78 59 68 68 82 81 87 94 96 99 100 96 90 98 99 85 92 87 96 91
3 2 26 56 100 47 46 28 31 30 20 16 14 11 9 28 100 100 99 99 76 78 85 51 39 66 77 79 80 87 72 80 79 78 98 99 99 100 95 97 98 99 94 87 98 99 100
3 9 32 85 92 94 67 53 48 38 28 21 31 20 12 32 98 100 100 99 37 88 77 47 41 70 83 84 96 97 90 93 87 92 95 97 99 96 88 98 99 98 78 71 82 98 97
9 15 24 46 66 74 72 65 57 44 56 71 48 44 16 80 83 94 100 97 82 88 80 36 48 74 90 92 98 96 81 92 92 98 98 99 100 99 94 86 94 97 97 82 72 86 88
14 30 40 63 71 72 73 66 69 80 80 62 55 58 49 100 80 99 100 89 91 84 73 38 70 80 86 94 92 87 80 88 95 98 98 94 96 97 77 71 80 100 98 93 92 92 92
26 47 68 86 76 74 65 58 64 73 76 77 90 74 79 99 96 99 98 92 94 89 36 53 81 83 85 87 96 92 100 90 100 91 99 96 99 97 98 99 93 99 96 99 96 92 96
47 75 88 82 74 65 58 61 66 71 95 85 96 56 93 85 99 98 91 92 91 57 46 62 76 83 84 85 87 94 97 98 87 83 90 90 91 97 98 99 96 95 78 75 91 92 98
68 87 91 82 76 72 71 74 87 98 76 68 43 96 98 99 98 98 90 98 75 46 43 65 77 76 88 80 97 97 98 100 86 96 93 99 98 98 97 99 94 78 70 81 92 99 94
81 92 86 86 84 72 77 75 90 96 96 76 79 97 98 98 98 96 98 88 80 43 51 60 66 72 75 81 83 94 98 97 98 99 96 100 98 100 87 84 77 67 64 62 67 90 94
96 90 84 88 84 67 75 53 95 98 97 93 90 98 98 98 96 98 98 90 73 54 58 62 63 68 68 75 84 87 95 98 98 93 86 86 84 95 81 82 80 70 63 57 59 57 73
96 89 81 83 79 67 61 64 95 98 97 98 98 96 97 96 97 100 95 96 60 66 58 59 71 66 72 77 85 93 96 100 98 90 83 82 79 92 95 89 76 64 60 52 47 59 52
96 86 83 79 78 69 71 62 96 98 97 99 98 96 97 97 97 99 85 97 66 68 55 62 73 68 73 86 86 83 98 96 90 79 76 78 79 84 80 78 73 66 58 51 49 49 49
90 88 85 79 72 77 72 82 95 93 97 96 96 96 98 97 99 88 96 99 70 69 57 58 68 66 72 79 79 87 95 85 78 74 68 71 72 60 70 63 62 63 64 58 50 45 50
93 89 86 76 75 47 35 98 98 98 96 97 96 96 92 94 99 97 100 82 57 63 61 65 70 69 72 74 76 73 74 68 72 74 72 62 60 60 62 58 58 55 54 58 56 54 49
94 89 84 76 75 27 78 98 98 98 97 98 97 96 96 92 99 98 100 81 58 58 60 62 61 67 67 74 74 66 74 63 57 62 63 61 72 69 76 74 71 67 63 61 61 60 60
91 88 77 72 58 29 87 95 90 92 93 97 98 96 96 92 99 98 96 78 63 53 64 60 64 65 66 69 76 74 70 66 62 57 63 60 70 74 77 75 70 71 78 77 74 71 69
91 80 77 59 31 92 94 84 95 98 83 97 96 93 86 91 100 96 94 79 73 61 52 63 71 70 74 78 83 77 81 74 74 73 72 66 67 64 74 71 77 62 66 70 70 72 74
93 74 67 23 99 98 98 78 96 93 94 98 93 93 97 78 99 98 96 90 82 62 58 56 59 71 79 81 79 80 85 77 83 80 76 69 58 58 64 69 57 53 50 54 55 57 63
68 62 42 79 100 89 75 65 60 86 95 94 95 73 99 92 99 97 98 99 92 65 56 57 71 82 80 74 69 70 65 70 66 70 72 67 70 64 65 60 61 57 56 57 57 53 53
27 28 21 80 100 86 68 52 58 89 89 85 92 78 89 96 99 94 92 99 87 77 82 90 83 82 77 72 66 64 63 65 64 67 64 65 74 75 72 65 58 52 53 61 58 54 53
18 15 36 91 100 95 72 86 83 86 94 86 63 80 91 93 100 98 96 97 92 87 81 86 82 78 69 72 72 66 66 64 66 65 69 76 74 71 79 71 57 48 50 53 54 56 56
16 13 70 99 97 83 81 81 81 81 84 69 68 82 97 92 97 98 92 98 95 86 87 77 76 72 74 71 62 70 66 64 66 65 62 60 61 56 52 53 52 49 44 42 42 43 51

GFSGBSN_700_rhum_078.txt.gz
RH
24 23 21 19 17 14 13 12 10 9 7 6 5 4 6 6 73 79 83 86 72 93 98 52 21 23 25 40 55 54 54 46 34 24 20 21 22 24 27 80 79 92 37 85 90 93 98
28 27 25 23 22 20 18 16 13 11 10 9 8 6 5 6 30 93 94 89 71 97 99 84 23 25 41 54 48 36 28 23 20 22 37 45 46 44 49 48 84 72 65 64 100 99 94
31 30 28 27 25 24 22 20 17 11 8 8 7 7 6 6 20 73 82 100 95 96 90 74 25 31 53 44 29 23 23 22 30 36 41 54 56 54 68 81 57 54 86 99 95 99 88
35 33 30 27 23 20 17 17 15 12 8 7 7 6 6 5 39 52 96 98 93 100 98 54 32 55 48 23 24 25 28 32 35 41 52 58 67 75 76 83 86 83 98 99 97 100 81
38 32 27 21 14 10 26 78 47 9 6 6 7 8 7 5 12 99 83 100 95 99 97 60 37 59 28 24 33 50 61 66 56 65 73 71 76 84 82 88 96 84 98 98 95 93 90
36 27 18 7 18 49 90 97 95 52 12 11 8 8 11 7 20 99 81 92 98 99 96 36 51 40 27 32 68 75 66 76 76 95 86 69 87 84 84 95 96 98 100 95 87 83 75
29 13 7 12 88 98 97 96 83 58 42 19 18 12 12 11 50 69 99 87 100 99 84 42 55 33 34 70 79 67 60 70 78 83 79 78 82 79 96 94 98 98 98 90 78 99 88
14 3 5 24 96 94 91 94 94 90 71 40 59 21 19 15 43 60 88 98 98 98 83 48 61 34 58 80 84 76 72 71 68 75 82 91 84 96 100 92 99 98 95 99 100 97 96
6 7 11 17 39 99 95 93 89 89 88 73 92 78 27 25 81 37 66 99 98 94 52 64 61 38 72 92 89 85 85 77 66 63 87 98 93 98 99 98 98 92 98 99 97 100 94
33 10 16 29 44 82 84 83 87 90 89 77 83 96 67 39 92 98 73 99 98 78 65 66 56 44 91 94 96 95 96 86 78 89 99 96 99 97 98 99 99 99 99 97 94 97 99
36 20 33 54 82 92 95 89 83 82 72 78 86 97 97 53 97 98 81 99 99 85 86 61 36 73 100 95 94 87 78 78 99 97 98 93 97 94 100 99 100 99 97 96 91 95 99
30 34 53 82 90 93 89 82 83 79 70 78 82 99 95 84 70 100 99 99 97 82 84 44 50 91 100 100 100 79 69 81 95 99 99 99 90 86 89 87 89 88 92 93 95 94 94
47 50 69 92 92 88 87 86 79 85 87 92 86 83 91 97 60 96 98 97 92 92 49 40 86 95 100 100 93 95 73 83 98 98 90 92 97 98 93 97 99 98 98 94 88 92 95
58 70 95 94 94 86 84 77 85 92 97 96 97 73 96 100 86 87 98 97 96 84 44 61 90 92 100 92 87 100 99 99 98 91 98 98 98 99 99 90 92 95 85 70 69 87 96
70 92 97 92 84 82 71 79 91 94 97 91 76 83 94 86 85 91 97 96 84 74 44 78 91 100 91 85 86 86 96 98 96 96 98 97 98 99 96 91 93 89 90 85 89 85 66
72 94 94 87 82 74 72 80 91 97 98 72 49 82 92 96 96 97 97 94 87 49 55 82 91 85 88 87 86 94 93 95 98 95 93 87 97 99 96 88 84 73 72 72 68 73 78
76 92 93 83 80 73 75 80 94 98 98 98 96 98 98 98 98 97 96 95 76 50 68 76 71 68 73 75 81 85 93 98 98 97 90 87 89 82 80 78 77 67 65 53 58 68 52
86 92 87 81 78 73 78 92 97 96 96 96 87 95 97 98 96 97 97 99 59 81 74 74 72 62 63 65 82 86 96 99 97 93 93 83 86 97 93 81 72 61 56 49 52 58 60
89 89 77 75 81 86 81 96 87 94 98 97 96 97 98 96 96 99 92 94 64 76 78 80 75 60 57 68 82 88 97 93 86 84 85 76 79 86 76 70 64 60 52 50 47 44 59
87 87 80 76 85 88 90 98 96 97 96 97 94 97 97 96 95 89 94 88 72 80 81 76 67 64 59 68 76 89 88 81 76 77 72 70 65 65 65 76 66 67 60 54 46 56 50
89 88 72 58 73 40 96 100 99 100 98 97 95 94 90 97 79 91 95 86 74 84 84 77 74 69 58 66 83 89 76 79 73 66 65 67 58 58 66 68 66 61 61 59 53 51 56
76 80 55 50 24 53 88 87 79 88 84 93 92 94 94 85 78 98 91 90 75 71 78 68 67 63 61 64 72 81 72 64 61 63 63 58 68 59 57 60 60 61 58 60 59 58 60
73 53 44 27 72 75 78 73 66 82 87 90 82 91 88 78 88 92 89 76 68 61 72 68 59 51 56 60 64 67 66 60 56 53 52 55 60 61 72 64 58 58 62 67 69 65 63
43 38 27 78 83 65 70 71 81 74 78 95 88 96 86 76 92 94 88 70 63 65 71 66 62 53 64 72 69 62 64 63 63 56 55 58 59 59 70 65 63 56 57 57 57 60 65
20 24 68 81 64 53 56 60 72 79 85 100 86 52 53 74 95 95 90 72 71 74 64 60 54 64 66 64 63 75 72 66 67 64 64 60 52 54 68 66 55 53 49 52 56 53 51
14 60 77 64 60 49 42 44 58 72 77 80 82 49 60 80 90 84 94 88 78 80 68 60 67 68 61 60 54 62 74 66 67 66 69 64 61 56 53 56 41 53 51 53 56 62 50
22 68 84 70 42 40 66 68 72 74 74 73 50 44 73 80 92 88 86 92 79 74 59 71 78 76 67 62 55 59 59 56 62 53 53 54 55 62 65 64 57 49 43 52 60 49 45
33 62 79 65 46 40 58 67 68 70 64 49 55 64 70 80 92 92 92 89 84 75 67 77 78 75 67 60 59 59 59 56 55 52 50 55 64 63 66 72 53 41 44 46 45 42 45
29 69 71 63 50 48 60 61 57 51 45 34 54 63 68 67 85 91 96 92 92 88 78 72 66 62 60 55 48 55 52 49 52 66 51 53 49 53 42 48 45 43 42 42 40 36 38